Darstellungsparameter: Aktuell verwendete Einstellungen:
Skalierung der Graphiken ... ?
xyx+y,   Skalierungsfaktor:      Skalierung: Modus: x, Faktor: 1
Darstellungszeitraum ... ?
Vom - - bis: - -   Zeitraum: 24.08.2018 - 28.08.2018
Min/Max/Avg-Anzeige ... ?
Zeige MMA aktuell
Zeige MMA Monat
Zeige MMA alles
Zeige --A aktuell
Zeige --A Monat
Zeige --A alles
Keine MMA-Anzeige
MMA:
Keine MMA-Graphiken
MMA-Basis: 24.08.2018 - 28.08.2018
Quicknavigation für Darstellung... ?
Tage:      1T, 2T, 3T, 5T -1T -2T -3T -5T +1T +2T +3T +5T
Wochen: 1W, 2W, 3W -1W -2W -3W +1W +2W +3W
Monate: 1M, 3M, 6M -1M -3M -6M +1M +3M +6M
Jahre:    1J, 3J, 5J, 10J -1J -3J -5J -10J +1J +3J +5J +10J
Nutze für die Darstellung ... ?
Originaldaten oder Mittelwerte auf ...
Stundenbasis Tagesbasis Wochenbasis
Monatsbasis Jahresbasis      Datenbasis: Original-Daten
Darstellen als:
Statistik (Auto) Statistik J:M      Darstellung:
Zur Graphik,    zurück zur Übersicht aller Sensoren.
 
Tabellarische Datenbersicht: ?
 
Sensor: Nr:Datum:Temp:Feuchte:Taupunkt:
Aussen-T/F 1 24-08-2018 00:00:00 20.7 C 78 % 16.73 C
2 24-08-2018 00:05:00 20.5 C 78 % 16.53 C
3 24-08-2018 00:10:00 20.4 C 79 % 16.64 C
4 24-08-2018 00:15:00 20.5 C 78 % 16.53 C
5 24-08-2018 00:20:00 20.7 C 78 % 16.73 C
6 24-08-2018 00:25:00 20.7 C 78 % 16.73 C
7 24-08-2018 00:30:00 20.8 C 77 % 16.62 C
8 24-08-2018 00:35:00 20.9 C 76 % 16.51 C
9 24-08-2018 00:40:00 21.1 C 76 % 16.7 C
10 24-08-2018 00:45:00 21.2 C 75 % 16.59 C
11 24-08-2018 00:50:00 21.2 C 75 % 16.59 C
12 24-08-2018 00:55:00 21.2 C 75 % 16.59 C
13 24-08-2018 01:00:00 21.3 C 74 % 16.48 C
14 24-08-2018 01:05:00 21.3 C 75 % 16.69 C
15 24-08-2018 01:10:00 21.3 C 75 % 16.69 C
16 24-08-2018 01:15:00 21.3 C 75 % 16.69 C
17 24-08-2018 01:20:00 21.2 C 75 % 16.59 C
18 24-08-2018 01:25:00 21.2 C 76 % 16.8 C
19 24-08-2018 01:30:00 21.1 C 76 % 16.7 C
20 24-08-2018 01:35:00 21.1 C 76 % 16.7 C
21 24-08-2018 01:40:00 21 C 76 % 16.61 C
22 24-08-2018 01:45:00 20.9 C 76 % 16.51 C
23 24-08-2018 01:50:00 20.8 C 76 % 16.41 C
24 24-08-2018 01:55:00 20.7 C 76 % 16.32 C
25 24-08-2018 02:00:00 20.5 C 76 % 16.12 C
Sensor: Nr:Datum:Temp:Feuchte:Taupunkt:
Aussen-T/F 26 24-08-2018 02:05:00 20.3 C 77 % 16.14 C
27 24-08-2018 02:10:00 20.2 C 78 % 16.24 C
28 24-08-2018 02:15:00 20.2 C 78 % 16.24 C
29 24-08-2018 02:20:00 20.2 C 78 % 16.24 C
30 24-08-2018 02:25:00 20.2 C 79 % 16.44 C
31 24-08-2018 02:30:00 20.1 C 78 % 16.14 C
32 24-08-2018 02:35:00 20.1 C 78 % 16.14 C
33 24-08-2018 02:40:00 20 C 78 % 16.05 C
34 24-08-2018 02:45:00 19.9 C 78 % 15.95 C
35 24-08-2018 02:50:00 19.7 C 78 % 15.76 C
36 24-08-2018 02:55:00 19.6 C 79 % 15.86 C
37 24-08-2018 03:00:00 19.5 C 79 % 15.76 C
38 24-08-2018 03:05:00 19.4 C 80 % 15.86 C
39 24-08-2018 03:10:00 19.3 C 80 % 15.76 C
40 24-08-2018 03:15:00 19.2 C 81 % 15.86 C
41 24-08-2018 03:20:00 19.1 C 81 % 15.76 C
42 24-08-2018 03:25:00 18.9 C 81 % 15.57 C
43 24-08-2018 03:30:00 18.8 C 81 % 15.47 C
44 24-08-2018 03:35:00 18.7 C 82 % 15.57 C
45 24-08-2018 03:40:00 18.6 C 82 % 15.47 C
46 24-08-2018 03:45:00 18.5 C 82 % 15.37 C
47 24-08-2018 03:50:00 18.4 C 83 % 15.46 C
48 24-08-2018 03:55:00 18.3 C 83 % 15.36 C
49 24-08-2018 04:00:00 18.3 C 83 % 15.36 C
50 24-08-2018 04:05:00 18.3 C 84 % 15.55 C
Sensor: Nr:Datum:Temp:Feuchte:Taupunkt:
Aussen-T/F 51 24-08-2018 04:10:00 18.2 C 83 % 15.27 C
52 24-08-2018 04:15:00 18.2 C 83 % 15.27 C
53 24-08-2018 04:20:00 18.2 C 83 % 15.27 C
54 24-08-2018 04:25:00 18.2 C 83 % 15.27 C
55 24-08-2018 04:30:00 18.2 C 83 % 15.27 C
56 24-08-2018 04:35:00 18.2 C 83 % 15.27 C
57 24-08-2018 04:40:00 18.2 C 83 % 15.27 C
58 24-08-2018 04:45:00 18.1 C 83 % 15.17 C
59 24-08-2018 04:50:00 18.1 C 83 % 15.17 C
60 24-08-2018 04:55:00 17.9 C 83 % 14.97 C
61 24-08-2018 05:00:00 17.9 C 83 % 14.97 C
62 24-08-2018 05:05:00 17.8 C 83 % 14.88 C
63 24-08-2018 05:10:00 17.7 C 84 % 14.96 C
64 24-08-2018 05:15:00 17.6 C 84 % 14.87 C
65 24-08-2018 05:20:00 17.6 C 84 % 14.87 C
66 24-08-2018 05:25:00 17.6 C 84 % 14.87 C
67 24-08-2018 05:30:00 17.5 C 84 % 14.77 C
68 24-08-2018 05:35:00 17.5 C 83 % 14.58 C
69 24-08-2018 05:40:00 17.5 C 83 % 14.58 C
70 24-08-2018 05:45:00 17.6 C 81 % 14.3 C
71 24-08-2018 05:50:00 17.6 C 80 % 14.11 C
72 24-08-2018 05:55:00 17.6 C 77 % 13.52 C
73 24-08-2018 06:00:00 17.7 C 77 % 13.62 C
74 24-08-2018 06:05:00 17.7 C 77 % 13.62 C
75 24-08-2018 06:10:00 17.6 C 77 % 13.52 C
Sensor: Nr:Datum:Temp:Feuchte:Taupunkt:
Aussen-T/F 76 24-08-2018 06:15:00 17.6 C 77 % 13.52 C
77 24-08-2018 06:20:00 17.4 C 78 % 13.53 C
78 24-08-2018 06:25:00 17.4 C 78 % 13.53 C
79 24-08-2018 06:30:00 17.4 C 78 % 13.53 C
80 24-08-2018 06:35:00 17.4 C 78 % 13.53 C
81 24-08-2018 06:40:00 17.4 C 77 % 13.33 C
82 24-08-2018 06:45:00 17.5 C 77 % 13.43 C
83 24-08-2018 06:50:00 17.6 C 76 % 13.32 C
84 24-08-2018 06:55:00 17.6 C 76 % 13.32 C
85 24-08-2018 07:00:00 17.7 C 76 % 13.42 C
86 24-08-2018 07:05:00 17.6 C 76 % 13.32 C
87 24-08-2018 07:10:00 17.6 C 75 % 13.12 C
88 24-08-2018 07:15:00 17.7 C 74 % 13.01 C
89 24-08-2018 07:20:00 17.7 C 72 % 12.59 C
90 24-08-2018 07:25:00 17.8 C 72 % 12.69 C
91 24-08-2018 07:30:00 17.8 C 72 % 12.69 C
92 24-08-2018 07:35:00 17.8 C 71 % 12.47 C
93 24-08-2018 07:40:00 17.8 C 72 % 12.69 C
94 24-08-2018 07:45:00 17.8 C 71 % 12.47 C
95 24-08-2018 07:50:00 17.8 C 72 % 12.69 C
96 24-08-2018 07:55:00 17.8 C 72 % 12.69 C
97 24-08-2018 08:00:00 17.8 C 72 % 12.69 C
98 24-08-2018 08:05:00 17.8 C 72 % 12.69 C
99 24-08-2018 08:10:00 17.7 C 72 % 12.59 C
100 24-08-2018 08:15:00 17.7 C 72 % 12.59 C
Sensor: Nr:Datum:Temp:Feuchte:Taupunkt:
Aussen-T/F 101 24-08-2018 08:20:00 17.7 C 72 % 12.59 C
102 24-08-2018 08:25:00 17.7 C 72 % 12.59 C
103 24-08-2018 08:30:00 17.8 C 72 % 12.69 C
104 24-08-2018 08:35:00 17.8 C 75 % 13.31 C
105 24-08-2018 08:40:00 17.7 C 77 % 13.62 C
106 24-08-2018 08:45:00 17.4 C 78 % 13.53 C
107 24-08-2018 08:50:00 17.2 C 79 % 13.53 C
108 24-08-2018 08:55:00 17.1 C 81 % 13.82 C
109 24-08-2018 09:00:00 17 C 81 % 13.72 C
110 24-08-2018 09:05:00 16.8 C 82 % 13.71 C
111 24-08-2018 09:10:00 16.7 C 83 % 13.8 C
112 24-08-2018 09:15:00 16.7 C 84 % 13.98 C
113 24-08-2018 09:20:00 16.6 C 84 % 13.89 C
114 24-08-2018 09:25:00 16.6 C 84 % 13.89 C
115 24-08-2018 09:30:00 16.6 C 84 % 13.89 C
116 24-08-2018 09:35:00 16.7 C 83 % 13.8 C
117 24-08-2018 09:40:00 16.7 C 84 % 13.98 C
118 24-08-2018 09:45:00 16.8 C 85 % 14.26 C
119 24-08-2018 09:50:00 16.7 C 86 % 14.35 C
120 24-08-2018 09:55:00 16.8 C 87 % 14.62 C
121 24-08-2018 10:00:00 16.8 C 87 % 14.62 C
122 24-08-2018 10:05:00 16.8 C 87 % 14.62 C
123 24-08-2018 10:10:00 16.8 C 86 % 14.45 C
124 24-08-2018 10:15:00 16.8 C 86 % 14.45 C
125 24-08-2018 10:20:00 17 C 86 % 14.64 C
Sensor: Nr:Datum:Temp:Feuchte:Taupunkt:
Aussen-T/F 126 24-08-2018 10:25:00 17.2 C 85 % 14.66 C
127 24-08-2018 10:30:00 17.2 C 84 % 14.47 C
128 24-08-2018 10:35:00 17.3 C 85 % 14.76 C
129 24-08-2018 10:40:00 17.3 C 85 % 14.76 C
130 24-08-2018 10:45:00 17.4 C 85 % 14.85 C
131 24-08-2018 10:50:00 17.4 C 84 % 14.67 C
132 24-08-2018 10:55:00 17.6 C 85 % 15.05 C
133 24-08-2018 11:00:00 17.7 C 85 % 15.15 C
134 24-08-2018 11:05:00 17.9 C 84 % 15.16 C
135 24-08-2018 11:10:00 18 C 83 % 15.07 C
136 24-08-2018 11:15:00 18.2 C 83 % 15.27 C
137 24-08-2018 11:20:00 18.3 C 82 % 15.17 C
138 24-08-2018 11:25:00 18.5 C 81 % 15.18 C
139 24-08-2018 11:30:00 18.6 C 80 % 15.08 C
140 24-08-2018 11:35:00 18.7 C 79 % 14.99 C
141 24-08-2018 11:40:00 18.8 C 76 % 14.48 C
142 24-08-2018 11:45:00 18.8 C 76 % 14.48 C
143 24-08-2018 11:50:00 18.8 C 71 % 13.43 C
144 24-08-2018 11:55:00 18.9 C 73 % 13.96 C
145 24-08-2018 12:00:00 19.1 C 70 % 13.5 C
146 24-08-2018 12:05:00 19.2 C 69 % 13.38 C
147 24-08-2018 12:10:00 19.3 C 69 % 13.47 C
148 24-08-2018 12:15:00 19.4 C 67 % 13.12 C
149 24-08-2018 12:20:00 19.6 C 66 % 13.08 C
150 24-08-2018 12:25:00 19.8 C 65 % 13.03 C
Sensor: Nr:Datum:Temp:Feuchte:Taupunkt:
Aussen-T/F 151 24-08-2018 12:30:00 20 C 63 % 12.75 C
152 24-08-2018 12:35:00 20.1 C 62 % 12.6 C
153 24-08-2018 12:40:00 20.2 C 61 % 12.44 C
154 24-08-2018 12:45:00 20.2 C 60 % 12.19 C
155 24-08-2018 12:50:00 20.3 C 62 % 12.79 C
156 24-08-2018 12:55:00 20.6 C 61 % 12.82 C
157 24-08-2018 13:00:00 20.7 C 59 % 12.41 C
158 24-08-2018 13:05:00 20.8 C 58 % 12.24 C
159 24-08-2018 13:10:00 20.9 C 58 % 12.33 C
160 24-08-2018 13:15:00 20.9 C 58 % 12.33 C
161 24-08-2018 13:20:00 20.9 C 56 % 11.8 C
162 24-08-2018 13:25:00 20.9 C 55 % 11.53 C
163 24-08-2018 13:30:00 21 C 54 % 11.34 C
164 24-08-2018 13:35:00 21.1 C 53 % 11.15 C
165 24-08-2018 13:40:00 21.2 C 53 % 11.25 C
166 24-08-2018 13:45:00 21.2 C 57 % 12.35 C
167 24-08-2018 13:50:00 21.1 C 59 % 12.78 C
168 24-08-2018 13:55:00 20.8 C 58 % 12.24 C
169 24-08-2018 14:00:00 20.6 C 58 % 12.05 C
170 24-08-2018 14:05:00 20.4 C 59 % 12.12 C
171 24-08-2018 14:10:00 20.4 C 58 % 11.86 C
172 24-08-2018 14:15:00 20.4 C 58 % 11.86 C
173 24-08-2018 14:20:00 20.6 C 58 % 12.05 C
174 24-08-2018 14:25:00 20.7 C 57 % 11.88 C
175 24-08-2018 14:30:00 20.7 C 57 % 11.88 C
Sensor: Nr:Datum:Temp:Feuchte:Taupunkt:
Aussen-T/F 176 24-08-2018 14:35:00 20.7 C 57 % 11.88 C
177 24-08-2018 14:40:00 20.7 C 57 % 11.88 C
178 24-08-2018 14:45:00 20.7 C 57 % 11.88 C
179 24-08-2018 14:50:00 20.8 C 53 % 10.88 C
180 24-08-2018 14:55:00 20.9 C 53 % 10.97 C
181 24-08-2018 15:00:00 21.2 C 54 % 11.53 C
182 24-08-2018 15:05:00 21.6 C 53 % 11.62 C
183 24-08-2018 15:10:00 21.5 C 54 % 11.81 C
184 24-08-2018 15:15:00 21.4 C 53 % 11.43 C
185 24-08-2018 15:20:00 21.4 C 53 % 11.43 C
186 24-08-2018 15:25:00 21.4 C 54 % 11.71 C
187 24-08-2018 15:30:00 21.6 C 54 % 11.9 C
188 24-08-2018 15:35:00 21.6 C 51 % 11.04 C
189 24-08-2018 15:40:00 21.4 C 49 % 10.25 C
190 24-08-2018 15:45:00 21.3 C 49 % 10.16 C
191 24-08-2018 15:50:00 21.2 C 48 % 9.76 C
192 24-08-2018 15:55:00 21.1 C 49 % 9.98 C
193 24-08-2018 16:00:00 21 C 48 % 9.58 C
194 24-08-2018 16:05:00 21 C 49 % 9.89 C
195 24-08-2018 16:10:00 21 C 49 % 9.89 C
196 24-08-2018 16:15:00 21 C 50 % 10.19 C
197 24-08-2018 16:20:00 21.1 C 49 % 9.98 C
198 24-08-2018 16:25:00 21.1 C 50 % 10.28 C
199 24-08-2018 16:30:00 21.3 C 49 % 10.16 C
200 24-08-2018 16:35:00 21.4 C 47 % 9.63 C
Sensor: Nr:Datum:Temp:Feuchte:Taupunkt:
Aussen-T/F 201 24-08-2018 16:40:00 21.3 C 47 % 9.54 C
202 24-08-2018 16:45:00 21.3 C 47 % 9.54 C
203 24-08-2018 16:50:00 21.4 C 47 % 9.63 C
204 24-08-2018 16:55:00 21.3 C 46 % 9.22 C
205 24-08-2018 17:00:00 21.2 C 47 % 9.45 C
206 24-08-2018 17:05:00 21.2 C 47 % 9.45 C
207 24-08-2018 17:10:00 21.2 C 46 % 9.13 C
208 24-08-2018 17:15:00 21.3 C 47 % 9.54 C
209 24-08-2018 17:20:00 21.4 C 46 % 9.31 C
210 24-08-2018 17:25:00 21.7 C 46 % 9.58 C
211 24-08-2018 17:30:00 21.7 C 46 % 9.58 C
212 24-08-2018 17:35:00 21.4 C 45 % 8.99 C
213 24-08-2018 17:40:00 21.3 C 45 % 8.89 C
214 24-08-2018 17:45:00 21.3 C 45 % 8.89 C
215 24-08-2018 17:50:00 21.2 C 45 % 8.8 C
216 24-08-2018 17:55:00 21.2 C 44 % 8.47 C
217 24-08-2018 18:00:00 21.3 C 44 % 8.56 C
218 24-08-2018 18:05:00 21.2 C 43 % 8.13 C
219 24-08-2018 18:10:00 21.2 C 44 % 8.47 C
220 24-08-2018 18:15:00 21.3 C 43 % 8.22 C
221 24-08-2018 18:20:00 21.3 C 43 % 8.22 C
222 24-08-2018 18:25:00 21.2 C 41 % 7.44 C
223 24-08-2018 18:30:00 21.2 C 43 % 8.13 C
224 24-08-2018 18:35:00 21.1 C 42 % 7.7 C
225 24-08-2018 18:40:00 20.9 C 42 % 7.52 C
Sensor: Nr:Datum:Temp:Feuchte:Taupunkt:
Aussen-T/F 226 24-08-2018 18:45:00 20.8 C 43 % 7.77 C
227 24-08-2018 18:50:00 20.7 C 45 % 8.35 C
228 24-08-2018 18:55:00 20.5 C 46 % 8.49 C
229 24-08-2018 19:00:00 20.3 C 46 % 8.31 C
230 24-08-2018 19:05:00 20.2 C 47 % 8.54 C
231 24-08-2018 19:10:00 20.1 C 47 % 8.45 C
232 24-08-2018 19:15:00 19.9 C 48 % 8.57 C
233 24-08-2018 19:20:00 19.8 C 48 % 8.48 C
234 24-08-2018 19:25:00 19.8 C 48 % 8.48 C
235 24-08-2018 19:30:00 19.7 C 48 % 8.39 C
236 24-08-2018 19:35:00 19.6 C 49 % 8.6 C
237 24-08-2018 19:40:00 19.6 C 49 % 8.6 C
238 24-08-2018 19:45:00 19.5 C 49 % 8.51 C
239 24-08-2018 19:50:00 19.4 C 49 % 8.42 C
240 24-08-2018 19:55:00 19.4 C 47 % 7.81 C
241 24-08-2018 20:00:00 19.4 C 47 % 7.81 C
242 24-08-2018 20:05:00 19.3 C 48 % 8.03 C
243 24-08-2018 20:10:00 19.3 C 47 % 7.72 C
244 24-08-2018 20:15:00 19.2 C 47 % 7.63 C
245 24-08-2018 20:20:00 19.2 C 47 % 7.63 C
246 24-08-2018 20:25:00 19.1 C 47 % 7.53 C
247 24-08-2018 20:30:00 19.1 C 47 % 7.53 C
248 24-08-2018 20:35:00 19 C 48 % 7.75 C
249 24-08-2018 20:40:00 18.9 C 47 % 7.35 C
250 24-08-2018 20:45:00 18.9 C 47 % 7.35 C
Sensor: Nr:Datum:Temp:Feuchte:Taupunkt:
Aussen-T/F 251 24-08-2018 20:50:00 18.8 C 46 % 6.95 C
252 24-08-2018 20:55:00 18.7 C 46 % 6.86 C
253 24-08-2018 21:00:00 18.6 C 45 % 6.45 C
254 24-08-2018 21:05:00 18.6 C 46 % 6.77 C
255 24-08-2018 21:10:00 18.5 C 46 % 6.67 C
256 24-08-2018 21:15:00 18.4 C 46 % 6.58 C
257 24-08-2018 21:20:00 18.4 C 46 % 6.58 C
258 24-08-2018 21:25:00 18.3 C 48 % 7.11 C
259 24-08-2018 21:30:00 18.2 C 48 % 7.02 C
260 24-08-2018 21:35:00 18.1 C 48 % 6.93 C
261 24-08-2018 21:40:00 17.9 C 47 % 6.44 C
262 24-08-2018 21:45:00 17.9 C 47 % 6.44 C
263 24-08-2018 21:50:00 17.9 C 50 % 7.34 C
264 24-08-2018 21:55:00 17.7 C 51 % 7.45 C
265 24-08-2018 22:00:00 17.4 C 50 % 6.88 C
266 24-08-2018 22:05:00 17.2 C 51 % 6.98 C
267 24-08-2018 22:10:00 16.9 C 53 % 7.27 C
268 24-08-2018 22:15:00 16.8 C 53 % 7.18 C
269 24-08-2018 22:20:00 16.6 C 53 % 6.99 C
270 24-08-2018 22:25:00 16.4 C 54 % 7.08 C
271 24-08-2018 22:30:00 16.3 C 54 % 6.98 C
272 24-08-2018 22:35:00 16.2 C 55 % 7.16 C
273 24-08-2018 22:40:00 16 C 55 % 6.97 C
274 24-08-2018 22:45:00 15.9 C 55 % 6.88 C
275 24-08-2018 22:50:00 15.8 C 56 % 7.05 C
Sensor: Nr:Datum:Temp:Feuchte:Taupunkt:
Aussen-T/F 276 24-08-2018 22:55:00 15.7 C 57 % 7.21 C
277 24-08-2018 23:00:00 15.6 C 56 % 6.86 C
278 24-08-2018 23:05:00 15.5 C 58 % 7.28 C
279 24-08-2018 23:10:00 15.3 C 58 % 7.09 C
280 24-08-2018 23:15:00 15.3 C 58 % 7.09 C
281 24-08-2018 23:20:00 15.2 C 60 % 7.5 C
282 24-08-2018 23:25:00 15.1 C 61 % 7.64 C
283 24-08-2018 23:30:00 14.9 C 60 % 7.21 C
284 24-08-2018 23:35:00 14.9 C 61 % 7.45 C
285 24-08-2018 23:40:00 14.8 C 61 % 7.36 C
286 24-08-2018 23:45:00 14.7 C 61 % 7.27 C
287 24-08-2018 23:50:00 14.7 C 62 % 7.5 C
288 24-08-2018 23:55:00 14.7 C 63 % 7.74 C
289 25-08-2018 00:00:00 14.6 C 63 % 7.64 C
290 25-08-2018 00:05:00 14.6 C 63 % 7.64 C
291 25-08-2018 00:10:00 14.5 C 64 % 7.78 C
292 25-08-2018 00:15:00 14.4 C 64 % 7.68 C
293 25-08-2018 00:20:00 14.4 C 64 % 7.68 C
294 25-08-2018 00:25:00 14.4 C 64 % 7.68 C
295 25-08-2018 00:30:00 14.3 C 64 % 7.59 C
296 25-08-2018 00:35:00 14.3 C 64 % 7.59 C
297 25-08-2018 00:40:00 14.3 C 65 % 7.82 C
298 25-08-2018 00:45:00 14.3 C 65 % 7.82 C
299 25-08-2018 00:50:00 14.3 C 65 % 7.82 C
300 25-08-2018 00:55:00 14.2 C 65 % 7.72 C
Sensor: Nr:Datum:Temp:Feuchte:Taupunkt:
Aussen-T/F 301 25-08-2018 01:00:00 14.2 C 65 % 7.72 C
302 25-08-2018 01:05:00 14.2 C 66 % 7.95 C
303 25-08-2018 01:10:00 14.2 C 66 % 7.95 C
304 25-08-2018 01:15:00 14.2 C 65 % 7.72 C
305 25-08-2018 01:20:00 14.1 C 65 % 7.63 C
306 25-08-2018 01:25:00 14.1 C 66 % 7.85 C
307 25-08-2018 01:30:00 14.1 C 66 % 7.85 C
308 25-08-2018 01:35:00 14.1 C 66 % 7.85 C
309 25-08-2018 01:40:00 14.1 C 66 % 7.85 C
310 25-08-2018 01:45:00 14.1 C 66 % 7.85 C
311 25-08-2018 01:50:00 14.2 C 67 % 8.17 C
312 25-08-2018 01:55:00 14.2 C 66 % 7.95 C
313 25-08-2018 02:00:00 14.2 C 66 % 7.95 C
314 25-08-2018 02:05:00 14.2 C 67 % 8.17 C
315 25-08-2018 02:10:00 14.2 C 67 % 8.17 C
316 25-08-2018 02:15:00 14.2 C 67 % 8.17 C
317 25-08-2018 02:20:00 14.3 C 68 % 8.48 C
318 25-08-2018 02:25:00 14.3 C 66 % 8.04 C
319 25-08-2018 02:30:00 14.3 C 65 % 7.82 C
320 25-08-2018 02:35:00 14.4 C 65 % 7.91 C
321 25-08-2018 02:40:00 14.6 C 65 % 8.1 C
322 25-08-2018 02:45:00 14.8 C 64 % 8.06 C
323 25-08-2018 02:50:00 14.9 C 64 % 8.16 C
324 25-08-2018 02:55:00 15.1 C 64 % 8.35 C
325 25-08-2018 03:00:00 15.1 C 64 % 8.35 C
Sensor: Nr:Datum:Temp:Feuchte:Taupunkt:
Aussen-T/F 326 25-08-2018 03:05:00 15.1 C 64 % 8.35 C
327 25-08-2018 03:10:00 15.1 C 65 % 8.58 C
328 25-08-2018 03:15:00 15.1 C 65 % 8.58 C
329 25-08-2018 03:20:00 15.1 C 66 % 8.8 C
330 25-08-2018 03:25:00 14.9 C 67 % 8.83 C
331 25-08-2018 03:30:00 14.8 C 67 % 8.74 C
332 25-08-2018 03:35:00 14.7 C 68 % 8.86 C
333 25-08-2018 03:40:00 14.6 C 69 % 8.98 C
334 25-08-2018 03:45:00 14.5 C 69 % 8.89 C
335 25-08-2018 03:50:00 14.3 C 69 % 8.7 C
336 25-08-2018 03:55:00 14.2 C 69 % 8.6 C
337 25-08-2018 04:00:00 14.1 C 70 % 8.72 C
338 25-08-2018 04:05:00 13.9 C 71 % 8.73 C
339 25-08-2018 04:10:00 13.8 C 70 % 8.43 C
340 25-08-2018 04:15:00 13.8 C 72 % 8.85 C
341 25-08-2018 04:20:00 13.7 C 72 % 8.75 C
342 25-08-2018 04:25:00 13.7 C 73 % 8.95 C
343 25-08-2018 04:30:00 13.7 C 73 % 8.95 C
344 25-08-2018 04:35:00 13.7 C 74 % 9.15 C
345 25-08-2018 04:40:00 13.7 C 74 % 9.15 C
346 25-08-2018 04:45:00 13.6 C 74 % 9.06 C
347 25-08-2018 04:50:00 13.6 C 74 % 9.06 C
348 25-08-2018 04:55:00 13.6 C 74 % 9.06 C
349 25-08-2018 05:00:00 13.6 C 74 % 9.06 C
350 25-08-2018 05:05:00 13.6 C 74 % 9.06 C
Sensor: Nr:Datum:Temp:Feuchte:Taupunkt:
Aussen-T/F 351 25-08-2018 05:10:00 13.7 C 75 % 9.35 C
352 25-08-2018 05:15:00 13.7 C 74 % 9.15 C
353 25-08-2018 05:20:00 13.8 C 74 % 9.25 C
354 25-08-2018 05:25:00 13.9 C 74 % 9.35 C
355 25-08-2018 05:30:00 13.9 C 73 % 9.15 C
356 25-08-2018 05:35:00 14 C 74 % 9.44 C
357 25-08-2018 05:40:00 14 C 74 % 9.44 C
358 25-08-2018 05:45:00 14 C 74 % 9.44 C
359 25-08-2018 05:50:00 14.1 C 73 % 9.34 C
360 25-08-2018 05:55:00 14.1 C 73 % 9.34 C
361 25-08-2018 06:00:00 14.2 C 73 % 9.43 C
362 25-08-2018 06:05:00 14.2 C 73 % 9.43 C
363 25-08-2018 06:10:00 14.3 C 73 % 9.53 C
364 25-08-2018 06:15:00 14.3 C 73 % 9.53 C
365 25-08-2018 06:20:00 14.3 C 72 % 9.33 C
366 25-08-2018 06:25:00 14.4 C 72 % 9.42 C
367 25-08-2018 06:30:00 14.4 C 74 % 9.83 C
368 25-08-2018 06:35:00 14.4 C 76 % 10.23 C
369 25-08-2018 06:40:00 14.3 C 76 % 10.13 C
370 25-08-2018 06:45:00 14.2 C 76 % 10.03 C
371 25-08-2018 06:50:00 14.1 C 76 % 9.94 C
372 25-08-2018 06:55:00 14 C 76 % 9.84 C
373 25-08-2018 07:00:00 13.9 C 77 % 9.94 C
374 25-08-2018 07:05:00 13.9 C 77 % 9.94 C
375 25-08-2018 07:10:00 13.9 C 76 % 9.74 C
Sensor: Nr:Datum:Temp:Feuchte:Taupunkt:
Aussen-T/F 376 25-08-2018 07:15:00 13.9 C 76 % 9.74 C
377 25-08-2018 07:20:00 13.9 C 76 % 9.74 C
378 25-08-2018 07:25:00 14 C 76 % 9.84 C
379 25-08-2018 07:30:00 14.1 C 77 % 10.13 C
380 25-08-2018 07:35:00 14.1 C 80 % 10.71 C
381 25-08-2018 07:40:00 14 C 81 % 10.79 C
382 25-08-2018 07:45:00 13.8 C 82 % 10.78 C
383 25-08-2018 07:50:00 13.6 C 83 % 10.77 C
384 25-08-2018 07:55:00 13.4 C 84 % 10.75 C
385 25-08-2018 08:00:00 13.3 C 85 % 10.83 C
386 25-08-2018 08:05:00 13.3 C 86 % 11.01 C
387 25-08-2018 08:10:00 13.2 C 86 % 10.91 C
388 25-08-2018 08:15:00 13.2 C 85 % 10.74 C
389 25-08-2018 08:20:00 13.1 C 85 % 10.64 C
390 25-08-2018 08:25:00 13.2 C 85 % 10.74 C
391 25-08-2018 08:30:00 13.2 C 85 % 10.74 C
392 25-08-2018 08:35:00 13.3 C 85 % 10.83 C
393 25-08-2018 08:40:00 13.3 C 85 % 10.83 C
394 25-08-2018 08:45:00 13.4 C 85 % 10.93 C
395 25-08-2018 08:50:00 13.4 C 85 % 10.93 C
396 25-08-2018 08:55:00 13.4 C 84 % 10.75 C
397 25-08-2018 09:00:00 13.6 C 84 % 10.95 C
398 25-08-2018 09:05:00 13.6 C 85 % 11.13 C
399 25-08-2018 09:10:00 13.6 C 85 % 11.13 C
400 25-08-2018 09:15:00 13.6 C 86 % 11.3 C
Sensor: Nr:Datum:Temp:Feuchte:Taupunkt:
Aussen-T/F 401 25-08-2018 09:20:00 13.6 C 87 % 11.48 C
402 25-08-2018 09:25:00 13.5 C 87 % 11.38 C
403 25-08-2018 09:30:00 13.4 C 87 % 11.28 C
404 25-08-2018 09:35:00 13.4 C 87 % 11.28 C
405 25-08-2018 09:40:00 13.4 C 87 % 11.28 C
406 25-08-2018 09:45:00 13.4 C 88 % 11.45 C
407 25-08-2018 09:50:00 13.5 C 88 % 11.55 C
408 25-08-2018 09:55:00 13.5 C 88 % 11.55 C
409 25-08-2018 10:00:00 13.6 C 88 % 11.65 C
410 25-08-2018 10:05:00 13.6 C 87 % 11.48 C
411 25-08-2018 10:10:00 13.7 C 86 % 11.4 C
412 25-08-2018 10:15:00 13.7 C 84 % 11.05 C
413 25-08-2018 10:20:00 13.7 C 82 % 10.69 C
414 25-08-2018 10:25:00 13.7 C 81 % 10.5 C
415 25-08-2018 10:30:00 13.8 C 80 % 10.41 C
416 25-08-2018 10:35:00 13.9 C 79 % 10.32 C
417 25-08-2018 10:40:00 13.9 C 77 % 9.94 C
418 25-08-2018 10:45:00 13.9 C 74 % 9.35 C
419 25-08-2018 10:50:00 13.9 C 74 % 9.35 C
420 25-08-2018 10:55:00 14 C 72 % 9.04 C
421 25-08-2018 11:00:00 14.2 C 73 % 9.43 C
422 25-08-2018 11:05:00 14.3 C 71 % 9.12 C
423 25-08-2018 11:10:00 14.3 C 71 % 9.12 C
424 25-08-2018 11:15:00 14.4 C 70 % 9 C
425 25-08-2018 11:20:00 14.6 C 70 % 9.2 C
Sensor: Nr:Datum:Temp:Feuchte:Taupunkt:
Aussen-T/F 426 25-08-2018 11:25:00 14.9 C 70 % 9.48 C
427 25-08-2018 11:30:00 15.1 C 69 % 9.46 C
428 25-08-2018 11:35:00 15.2 C 68 % 9.34 C
429 25-08-2018 11:40:00 15.2 C 68 % 9.34 C
430 25-08-2018 11:45:00 15.2 C 67 % 9.12 C
431 25-08-2018 11:50:00 15.2 C 66 % 8.9 C
432 25-08-2018 11:55:00 15.3 C 66 % 8.99 C
433 25-08-2018 12:00:00 15.4 C 66 % 9.09 C
434 25-08-2018 12:05:00 15.4 C 67 % 9.31 C
435 25-08-2018 12:10:00 15.4 C 66 % 9.09 C
436 25-08-2018 12:15:00 15.7 C 64 % 8.92 C
437 25-08-2018 12:20:00 15.8 C 62 % 8.54 C
438 25-08-2018 12:25:00 16 C 60 % 8.25 C
439 25-08-2018 12:30:00 16.2 C 60 % 8.43 C
440 25-08-2018 12:35:00 16.4 C 60 % 8.62 C
441 25-08-2018 12:40:00 16.4 C 59 % 8.38 C
442 25-08-2018 12:45:00 16.5 C 59 % 8.47 C
443 25-08-2018 12:50:00 16.6 C 58 % 8.31 C
444 25-08-2018 12:55:00 16.7 C 58 % 8.4 C
445 25-08-2018 13:00:00 16.7 C 57 % 8.15 C
446 25-08-2018 13:05:00 16.7 C 57 % 8.15 C
447 25-08-2018 13:10:00 16.7 C 58 % 8.4 C
448 25-08-2018 13:15:00 16.8 C 57 % 8.24 C
449 25-08-2018 13:20:00 16.8 C 56 % 7.98 C
450 25-08-2018 13:25:00 16.8 C 56 % 7.98 C
Sensor: Nr:Datum:Temp:Feuchte:Taupunkt:
Aussen-T/F 451 25-08-2018 13:30:00 16.9 C 55 % 7.81 C
452 25-08-2018 13:35:00 16.8 C 55 % 7.72 C
453 25-08-2018 13:40:00 16.8 C 56 % 7.98 C
454 25-08-2018 13:45:00 16.8 C 55 % 7.72 C
455 25-08-2018 13:50:00 16.7 C 55 % 7.62 C
456 25-08-2018 13:55:00 16.7 C 56 % 7.89 C
457 25-08-2018 14:00:00 16.7 C 58 % 8.4 C
458 25-08-2018 14:05:00 16.8 C 57 % 8.24 C
459 25-08-2018 14:10:00 17 C 57 % 8.43 C
460 25-08-2018 14:15:00 16.8 C 57 % 8.24 C
461 25-08-2018 14:20:00 16.7 C 58 % 8.4 C
462 25-08-2018 14:25:00 16.6 C 59 % 8.56 C
463 25-08-2018 14:30:00 16.6 C 58 % 8.31 C
464 25-08-2018 14:35:00 16.7 C 59 % 8.66 C
465 25-08-2018 14:40:00 16.8 C 56 % 7.98 C
466 25-08-2018 14:45:00 16.9 C 58 % 8.59 C
467 25-08-2018 14:50:00 17.1 C 56 % 8.26 C
468 25-08-2018 14:55:00 17.2 C 57 % 8.62 C
469 25-08-2018 15:00:00 17.4 C 55 % 8.28 C
470 25-08-2018 15:05:00 17.7 C 54 % 8.28 C
471 25-08-2018 15:10:00 17.8 C 52 % 7.82 C
472 25-08-2018 15:15:00 17.8 C 52 % 7.82 C
473 25-08-2018 15:20:00 17.7 C 52 % 7.73 C
474 25-08-2018 15:25:00 17.6 C 54 % 8.19 C
475 25-08-2018 15:30:00 17.6 C 53 % 7.92 C
Sensor: Nr:Datum:Temp:Feuchte:Taupunkt:
Aussen-T/F 476 25-08-2018 15:35:00 17.6 C 52 % 7.64 C
477 25-08-2018 15:40:00 17.7 C 53 % 8.01 C
478 25-08-2018 15:45:00 17.8 C 53 % 8.1 C
479 25-08-2018 15:50:00 17.9 C 53 % 8.19 C
480 25-08-2018 15:55:00 18.1 C 52 % 8.1 C
481 25-08-2018 16:00:00 17.9 C 50 % 7.34 C
482 25-08-2018 16:05:00 17.8 C 50 % 7.25 C
483 25-08-2018 16:10:00 17.8 C 50 % 7.25 C
484 25-08-2018 16:15:00 17.8 C 51 % 7.54 C
485 25-08-2018 16:20:00 17.9 C 51 % 7.63 C
486 25-08-2018 16:25:00 18.1 C 52 % 8.1 C
487 25-08-2018 16:30:00 18.1 C 50 % 7.52 C
488 25-08-2018 16:35:00 18.2 C 50 % 7.62 C
489 25-08-2018 16:40:00 18.1 C 50 % 7.52 C
490 25-08-2018 16:45:00 18 C 50 % 7.43 C
491 25-08-2018 16:50:00 17.9 C 49 % 7.05 C
492 25-08-2018 16:55:00 17.9 C 48 % 6.75 C
493 25-08-2018 17:00:00 17.8 C 48 % 6.65 C
494 25-08-2018 17:05:00 17.8 C 48 % 6.65 C
495 25-08-2018 17:10:00 17.9 C 51 % 7.63 C
496 25-08-2018 17:15:00 18 C 50 % 7.43 C
497 25-08-2018 17:20:00 18.1 C 49 % 7.23 C
498 25-08-2018 17:25:00 18.1 C 49 % 7.23 C
499 25-08-2018 17:30:00 18.2 C 50 % 7.62 C
500 25-08-2018 17:35:00 18.2 C 52 % 8.19 C
Sensor: Nr:Datum:Temp:Feuchte:Taupunkt:
Aussen-T/F 501 25-08-2018 17:40:00 18.2 C 51 % 7.91 C
502 25-08-2018 17:45:00 18.3 C 51 % 8 C
503 25-08-2018 17:50:00 18.2 C 50 % 7.62 C
504 25-08-2018 17:55:00 18.1 C 52 % 8.1 C
505 25-08-2018 18:00:00 17.9 C 52 % 7.91 C
506 25-08-2018 18:05:00 17.9 C 52 % 7.91 C
507 25-08-2018 18:10:00 17.8 C 52 % 7.82 C
508 25-08-2018 18:15:00 17.6 C 56 % 8.73 C
509 25-08-2018 18:20:00 16.9 C 59 % 8.84 C
510 25-08-2018 18:25:00 16.4 C 64 % 9.58 C
511 25-08-2018 18:30:00 15.8 C 68 % 9.91 C
512 25-08-2018 18:35:00 15.3 C 70 % 9.87 C
513 25-08-2018 18:40:00 14.8 C 71 % 9.6 C
514 25-08-2018 18:45:00 14.6 C 72 % 9.61 C
515 25-08-2018 18:50:00 14.5 C 74 % 9.93 C
516 25-08-2018 18:55:00 14.4 C 74 % 9.83 C
517 25-08-2018 19:00:00 14.3 C 73 % 9.53 C
518 25-08-2018 19:05:00 14.3 C 74 % 9.73 C
519 25-08-2018 19:10:00 14.3 C 74 % 9.73 C
520 25-08-2018 19:15:00 14.4 C 74 % 9.83 C
521 25-08-2018 19:20:00 14.4 C 73 % 9.63 C
522 25-08-2018 19:25:00 14.4 C 73 % 9.63 C
523 25-08-2018 19:30:00 14.5 C 73 % 9.72 C
524 25-08-2018 19:35:00 14.4 C 73 % 9.63 C
525 25-08-2018 19:40:00 14.4 C 73 % 9.63 C
Sensor: Nr:Datum:Temp:Feuchte:Taupunkt:
Aussen-T/F 526 25-08-2018 19:45:00 14.4 C 73 % 9.63 C
527 25-08-2018 19:50:00 14.3 C 74 % 9.73 C
528 25-08-2018 19:55:00 14.3 C 75 % 9.93 C
529 25-08-2018 20:00:00 14.1 C 75 % 9.74 C
530 25-08-2018 20:05:00 13.9 C 75 % 9.55 C
531 25-08-2018 20:10:00 13.8 C 76 % 9.65 C
532 25-08-2018 20:15:00 13.6 C 76 % 9.45 C
533 25-08-2018 20:20:00 13.3 C 77 % 9.36 C
534 25-08-2018 20:25:00 13.2 C 77 % 9.26 C
535 25-08-2018 20:30:00 13 C 78 % 9.26 C
536 25-08-2018 20:35:00 12.8 C 78 % 9.06 C
537 25-08-2018 20:40:00 12.6 C 79 % 9.06 C
538 25-08-2018 20:45:00 12.5 C 79 % 8.96 C
539 25-08-2018 20:50:00 12.4 C 80 % 9.05 C
540 25-08-2018 20:55:00 12.3 C 80 % 8.95 C
541 25-08-2018 21:00:00 12.2 C 80 % 8.86 C
542 25-08-2018 21:05:00 12.2 C 80 % 8.86 C
543 25-08-2018 21:10:00 12.1 C 81 % 8.94 C
544 25-08-2018 21:15:00 12 C 81 % 8.84 C
545 25-08-2018 21:20:00 11.9 C 81 % 8.75 C
546 25-08-2018 21:25:00 11.8 C 82 % 8.83 C
547 25-08-2018 21:30:00 11.7 C 82 % 8.73 C
548 25-08-2018 21:35:00 11.6 C 82 % 8.64 C
549 25-08-2018 21:40:00 11.4 C 82 % 8.44 C
550 25-08-2018 21:45:00 11.3 C 82 % 8.34 C
Sensor: Nr:Datum:Temp:Feuchte:Taupunkt:
Aussen-T/F 551 25-08-2018 21:50:00 11.2 C 82 % 8.25 C
552 25-08-2018 21:55:00 11.2 C 83 % 8.42 C
553 25-08-2018 22:00:00 11.1 C 83 % 8.33 C
554 25-08-2018 22:05:00 10.9 C 83 % 8.13 C
555 25-08-2018 22:10:00 10.9 C 83 % 8.13 C
556 25-08-2018 22:15:00 10.8 C 83 % 8.03 C
557 25-08-2018 22:20:00 10.7 C 83 % 7.93 C
558 25-08-2018 22:25:00 10.6 C 84 % 8.01 C
559 25-08-2018 22:30:00 10.5 C 84 % 7.91 C
560 25-08-2018 22:35:00 10.4 C 84 % 7.82 C
561 25-08-2018 22:40:00 10.4 C 85 % 7.99 C
562 25-08-2018 22:45:00 10.3 C 85 % 7.89 C
563 25-08-2018 22:50:00 10.3 C 85 % 7.89 C
564 25-08-2018 22:55:00 10.3 C 85 % 7.89 C
565 25-08-2018 23:00:00 10.3 C 85 % 7.89 C
566 25-08-2018 23:05:00 10.3 C 85 % 7.89 C
567 25-08-2018 23:10:00 10.3 C 85 % 7.89 C
568 25-08-2018 23:15:00 10.3 C 85 % 7.89 C
569 25-08-2018 23:20:00 10.3 C 85 % 7.89 C
570 25-08-2018 23:25:00 10.3 C 85 % 7.89 C
571 25-08-2018 23:30:00 10.4 C 85 % 7.99 C
572 25-08-2018 23:35:00 10.4 C 85 % 7.99 C
573 25-08-2018 23:40:00 10.4 C 85 % 7.99 C
574 25-08-2018 23:45:00 10.3 C 85 % 7.89 C
575 25-08-2018 23:50:00 10.3 C 85 % 7.89 C
Sensor: Nr:Datum:Temp:Feuchte:Taupunkt:
Aussen-T/F 576 25-08-2018 23:55:00 10.3 C 85 % 7.89 C
577 26-08-2018 00:00:00 10.3 C 85 % 7.89 C
578 26-08-2018 00:05:00 10.3 C 85 % 7.89 C
579 26-08-2018 00:10:00 10.2 C 85 % 7.79 C
580 26-08-2018 00:15:00 10.2 C 85 % 7.79 C
581 26-08-2018 00:20:00 10.1 C 85 % 7.7 C
582 26-08-2018 00:25:00 10.1 C 85 % 7.7 C
583 26-08-2018 00:30:00 10 C 86 % 7.77 C
584 26-08-2018 00:35:00 9.9 C 86 % 7.67 C
585 26-08-2018 00:40:00 9.9 C 85 % 7.5 C
586 26-08-2018 00:45:00 9.8 C 86 % 7.57 C
587 26-08-2018 00:50:00 9.7 C 86 % 7.47 C
588 26-08-2018 00:55:00 9.6 C 86 % 7.38 C
589 26-08-2018 01:00:00 9.4 C 86 % 7.18 C
590 26-08-2018 01:05:00 9.3 C 86 % 7.08 C
591 26-08-2018 01:10:00 9.3 C 87 % 7.25 C
592 26-08-2018 01:15:00 9.3 C 87 % 7.25 C
593 26-08-2018 01:20:00 9.2 C 87 % 7.15 C
594 26-08-2018 01:25:00 9.2 C 87 % 7.15 C
595 26-08-2018 01:30:00 9.1 C 87 % 7.05 C
596 26-08-2018 01:35:00 9.1 C 88 % 7.22 C
597 26-08-2018 01:40:00 9.1 C 88 % 7.22 C
598 26-08-2018 01:45:00 8.9 C 88 % 7.02 C
599 26-08-2018 01:50:00 8.9 C 88 % 7.02 C
600 26-08-2018 01:55:00 8.9 C 89 % 7.19 C
Sensor: Nr:Datum:Temp:Feuchte:Taupunkt:
Aussen-T/F 601 26-08-2018 02:00:00 8.8 C 89 % 7.09 C
602 26-08-2018 02:05:00 8.8 C 89 % 7.09 C
603 26-08-2018 02:10:00 8.7 C 89 % 6.99 C
604 26-08-2018 02:15:00 8.7 C 89 % 6.99 C
605 26-08-2018 02:20:00 8.7 C 90 % 7.15 C
606 26-08-2018 02:25:00 8.7 C 90 % 7.15 C
607 26-08-2018 02:30:00 8.7 C 90 % 7.15 C
608 26-08-2018 02:35:00 8.7 C 90 % 7.15 C
609 26-08-2018 02:40:00 8.7 C 90 % 7.15 C
610 26-08-2018 02:45:00 8.8 C 91 % 7.41 C
611 26-08-2018 02:50:00 8.8 C 91 % 7.41 C
612 26-08-2018 02:55:00 8.8 C 90 % 7.25 C
613 26-08-2018 03:00:00 8.7 C 90 % 7.15 C
614 26-08-2018 03:05:00 8.7 C 90 % 7.15 C
615 26-08-2018 03:10:00 8.6 C 90 % 7.06 C
616 26-08-2018 03:15:00 8.4 C 90 % 6.86 C
617 26-08-2018 03:20:00 8.4 C 90 % 6.86 C
618 26-08-2018 03:25:00 8.3 C 90 % 6.76 C
619 26-08-2018 03:30:00 8.3 C 90 % 6.76 C
620 26-08-2018 03:35:00 8.3 C 90 % 6.76 C
621 26-08-2018 03:40:00 8.2 C 90 % 6.66 C
622 26-08-2018 03:45:00 8.1 C 91 % 6.72 C
623 26-08-2018 03:50:00 8.1 C 91 % 6.72 C
624 26-08-2018 03:55:00 8.1 C 91 % 6.72 C
625 26-08-2018 04:00:00 8.1 C 91 % 6.72 C
Sensor: Nr:Datum:Temp:Feuchte:Taupunkt:
Aussen-T/F 626 26-08-2018 04:05:00 8.1 C 91 % 6.72 C
627 26-08-2018 04:10:00 8.1 C 91 % 6.72 C
628 26-08-2018 04:15:00 8 C 91 % 6.62 C
629 26-08-2018 04:20:00 8 C 91 % 6.62 C
630 26-08-2018 04:25:00 8 C 91 % 6.62 C
631 26-08-2018 04:30:00 7.9 C 91 % 6.52 C
632 26-08-2018 04:35:00 7.9 C 92 % 6.68 C
633 26-08-2018 04:40:00 7.9 C 92 % 6.68 C
634 26-08-2018 04:45:00 7.9 C 92 % 6.68 C
635 26-08-2018 04:50:00 7.9 C 92 % 6.68 C
636 26-08-2018 04:55:00 7.9 C 92 % 6.68 C
637 26-08-2018 05:00:00 7.9 C 92 % 6.68 C
638 26-08-2018 05:05:00 7.8 C 91 % 6.43 C
639 26-08-2018 05:10:00 7.8 C 91 % 6.43 C
640 26-08-2018 05:15:00 7.7 C 91 % 6.33 C
641 26-08-2018 05:20:00 7.7 C 91 % 6.33 C
642 26-08-2018 05:25:00 7.6 C 91 % 6.23 C
643 26-08-2018 05:30:00 7.5 C 91 % 6.13 C
644 26-08-2018 05:35:00 7.4 C 91 % 6.03 C
645 26-08-2018 05:40:00 7.4 C 91 % 6.03 C
646 26-08-2018 05:45:00 7.3 C 91 % 5.93 C
647 26-08-2018 05:50:00 7.2 C 92 % 5.99 C
648 26-08-2018 05:55:00 7.2 C 91 % 5.83 C
649 26-08-2018 06:00:00 7.1 C 91 % 5.73 C
650 26-08-2018 06:05:00 7.1 C 92 % 5.89 C
Sensor: Nr:Datum:Temp:Feuchte:Taupunkt:
Aussen-T/F 651 26-08-2018 06:10:00 7.1 C 92 % 5.89 C
652 26-08-2018 06:15:00 7 C 92 % 5.79 C
653 26-08-2018 06:20:00 6.9 C 92 % 5.69 C
654 26-08-2018 06:25:00 6.9 C 92 % 5.69 C
655 26-08-2018 06:30:00 6.9 C 92 % 5.69 C
656 26-08-2018 06:35:00 6.9 C 92 % 5.69 C
657 26-08-2018 06:40:00 6.8 C 92 % 5.59 C
658 26-08-2018 06:45:00 6.8 C 92 % 5.59 C
659 26-08-2018 06:50:00 6.8 C 92 % 5.59 C
660 26-08-2018 06:55:00 6.8 C 92 % 5.59 C
661 26-08-2018 07:00:00 6.8 C 92 % 5.59 C
662 26-08-2018 07:05:00 6.8 C 92 % 5.59 C
663 26-08-2018 07:10:00 6.8 C 92 % 5.59 C
664 26-08-2018 07:15:00 6.9 C 92 % 5.69 C
665 26-08-2018 07:20:00 6.9 C 93 % 5.85 C
666 26-08-2018 07:25:00 7 C 93 % 5.95 C
667 26-08-2018 07:30:00 7 C 93 % 5.95 C
668 26-08-2018 07:35:00 7 C 93 % 5.95 C
669 26-08-2018 07:40:00 7.1 C 93 % 6.05 C
670 26-08-2018 07:45:00 7.2 C 93 % 6.15 C
671 26-08-2018 07:50:00 7.3 C 93 % 6.25 C
672 26-08-2018 07:55:00 7.3 C 93 % 6.25 C
673 26-08-2018 08:00:00 7.4 C 93 % 6.34 C
674 26-08-2018 08:05:00 7.6 C 93 % 6.54 C
675 26-08-2018 08:10:00 7.7 C 93 % 6.64 C
Sensor: Nr:Datum:Temp:Feuchte:Taupunkt:
Aussen-T/F 676 26-08-2018 08:15:00 7.7 C 93 % 6.64 C
677 26-08-2018 08:20:00 7.8 C 93 % 6.74 C
678 26-08-2018 08:25:00 7.8 C 93 % 6.74 C
679 26-08-2018 08:30:00 7.8 C 93 % 6.74 C
680 26-08-2018 08:35:00 7.9 C 93 % 6.84 C
681 26-08-2018 08:40:00 8 C 93 % 6.94 C
682 26-08-2018 08:45:00 8.1 C 93 % 7.04 C
683 26-08-2018 08:50:00 8.2 C 93 % 7.14 C
684 26-08-2018 08:55:00 8.3 C 93 % 7.24 C
685 26-08-2018 09:00:00 8.4 C 93 % 7.34 C
686 26-08-2018 09:05:00 8.5 C 93 % 7.43 C
687 26-08-2018 09:10:00 8.6 C 93 % 7.53 C
688 26-08-2018 09:15:00 8.7 C 93 % 7.63 C
689 26-08-2018 09:20:00 8.8 C 93 % 7.73 C
690 26-08-2018 09:25:00 8.9 C 93 % 7.83 C
691 26-08-2018 09:30:00 9.1 C 93 % 8.03 C
692 26-08-2018 09:35:00 9.2 C 93 % 8.13 C
693 26-08-2018 09:40:00 9.3 C 93 % 8.23 C
694 26-08-2018 09:45:00 9.4 C 93 % 8.33 C
695 26-08-2018 09:50:00 9.6 C 93 % 8.53 C
696 26-08-2018 09:55:00 9.8 C 93 % 8.72 C
697 26-08-2018 10:00:00 9.9 C 93 % 8.82 C
698 26-08-2018 10:05:00 10.1 C 92 % 8.86 C
699 26-08-2018 10:10:00 10.3 C 92 % 9.06 C
700 26-08-2018 10:15:00 10.6 C 92 % 9.36 C
Sensor: Nr:Datum:Temp:Feuchte:Taupunkt:
Aussen-T/F 701 26-08-2018 10:20:00 10.8 C 91 % 9.39 C
702 26-08-2018 10:25:00 11 C 90 % 9.42 C
703 26-08-2018 10:30:00 11.2 C 90 % 9.62 C
704 26-08-2018 10:35:00 11.5 C 89 % 9.75 C
705 26-08-2018 10:40:00 11.8 C 87 % 9.71 C
706 26-08-2018 10:45:00 12.1 C 86 % 9.83 C
707 26-08-2018 10:50:00 12.3 C 86 % 10.03 C
708 26-08-2018 10:55:00 12.5 C 84 % 9.87 C
709 26-08-2018 11:00:00 12.8 C 84 % 10.17 C
710 26-08-2018 11:05:00 12.9 C 84 % 10.26 C
711 26-08-2018 11:10:00 13.2 C 81 % 10.01 C
712 26-08-2018 11:15:00 13.4 C 79 % 9.84 C
713 26-08-2018 11:20:00 13.7 C 78 % 9.94 C
714 26-08-2018 11:25:00 13.8 C 75 % 9.45 C
715 26-08-2018 11:30:00 14.2 C 69 % 8.6 C
716 26-08-2018 11:35:00 14.7 C 67 % 8.64 C
717 26-08-2018 11:40:00 15 C 67 % 8.93 C
718 26-08-2018 11:45:00 15.3 C 66 % 8.99 C
719 26-08-2018 11:50:00 15.5 C 66 % 9.18 C
720 26-08-2018 11:55:00 15.7 C 64 % 8.92 C
721 26-08-2018 12:00:00 16 C 62 % 8.73 C
722 26-08-2018 12:05:00 16.2 C 60 % 8.43 C
723 26-08-2018 12:10:00 16.3 C 55 % 7.25 C
724 26-08-2018 12:15:00 16.4 C 57 % 7.87 C
725 26-08-2018 12:20:00 16.5 C 56 % 7.7 C
Sensor: Nr:Datum:Temp:Feuchte:Taupunkt:
Aussen-T/F 726 26-08-2018 12:25:00 16.6 C 56 % 7.8 C
727 26-08-2018 12:30:00 16.7 C 54 % 7.36 C
728 26-08-2018 12:35:00 16.8 C 56 % 7.98 C
729 26-08-2018 12:40:00 16.8 C 53 % 7.18 C
730 26-08-2018 12:45:00 17 C 50 % 6.51 C
731 26-08-2018 12:50:00 17.2 C 50 % 6.7 C
732 26-08-2018 12:55:00 17.4 C 48 % 6.29 C
733 26-08-2018 13:00:00 17.6 C 47 % 6.17 C
734 26-08-2018 13:05:00 17.7 C 46 % 5.95 C
735 26-08-2018 13:10:00 17.8 C 47 % 6.35 C
736 26-08-2018 13:15:00 17.8 C 46 % 6.04 C
737 26-08-2018 13:20:00 18 C 49 % 7.14 C
738 26-08-2018 13:25:00 18.1 C 46 % 6.31 C
739 26-08-2018 13:30:00 18.2 C 48 % 7.02 C
740 26-08-2018 13:35:00 18.3 C 47 % 6.8 C
741 26-08-2018 13:40:00 18.4 C 46 % 6.58 C
742 26-08-2018 13:45:00 18.5 C 46 % 6.67 C
743 26-08-2018 13:50:00 18.7 C 45 % 6.54 C
744 26-08-2018 13:55:00 18.8 C 44 % 6.3 C
745 26-08-2018 14:00:00 18.8 C 44 % 6.3 C
746 26-08-2018 14:05:00 18.9 C 44 % 6.39 C
747 26-08-2018 14:10:00 19 C 43 % 6.15 C
748 26-08-2018 14:15:00 19.2 C 44 % 6.66 C
749 26-08-2018 14:20:00 19.4 C 41 % 5.82 C
750 26-08-2018 14:25:00 19.6 C 42 % 6.35 C
Sensor: Nr:Datum:Temp:Feuchte:Taupunkt:
Aussen-T/F 751 26-08-2018 14:30:00 19.6 C 42 % 6.35 C
752 26-08-2018 14:35:00 19.7 C 41 % 6.09 C
753 26-08-2018 14:40:00 19.7 C 42 % 6.44 C
754 26-08-2018 14:45:00 19.9 C 41 % 6.27 C
755 26-08-2018 14:50:00 20.1 C 41 % 6.45 C
756 26-08-2018 14:55:00 20.2 C 41 % 6.54 C
757 26-08-2018 15:00:00 20.4 C 41 % 6.72 C
758 26-08-2018 15:05:00 20.5 C 42 % 7.16 C
759 26-08-2018 15:10:00 20.5 C 41 % 6.81 C
760 26-08-2018 15:15:00 20.3 C 42 % 6.98 C
761 26-08-2018 15:20:00 20.4 C 42 % 7.07 C
762 26-08-2018 15:25:00 20.7 C 41 % 6.99 C
763 26-08-2018 15:30:00 20.8 C 41 % 7.08 C
764 26-08-2018 15:35:00 20.6 C 42 % 7.25 C
765 26-08-2018 15:40:00 20.5 C 42 % 7.16 C
766 26-08-2018 15:45:00 20.4 C 42 % 7.07 C
767 26-08-2018 15:50:00 20.5 C 43 % 7.5 C
768 26-08-2018 15:55:00 20.8 C 42 % 7.43 C
769 26-08-2018 16:00:00 20.9 C 40 % 6.81 C
770 26-08-2018 16:05:00 20.8 C 40 % 6.72 C
771 26-08-2018 16:10:00 20.7 C 42 % 7.34 C
772 26-08-2018 16:15:00 20.9 C 41 % 7.17 C
773 26-08-2018 16:20:00 21.4 C 40 % 7.25 C
774 26-08-2018 16:25:00 21.4 C 40 % 7.25 C
775 26-08-2018 16:30:00 21.9 C 41 % 8.06 C
Sensor: Nr:Datum:Temp:Feuchte:Taupunkt:
Aussen-T/F 776 26-08-2018 16:35:00 22.6 C 36 % 6.78 C
777 26-08-2018 16:40:00 22.8 C 36 % 6.96 C
778 26-08-2018 16:45:00 22.6 C 37 % 7.18 C
779 26-08-2018 16:50:00 22.2 C 37 % 6.83 C
780 26-08-2018 16:55:00 21.8 C 37 % 6.48 C
781 26-08-2018 17:00:00 21.4 C 38 % 6.51 C
782 26-08-2018 17:05:00 21.5 C 39 % 6.97 C
783 26-08-2018 17:10:00 21.9 C 38 % 6.95 C
784 26-08-2018 17:15:00 22.2 C 39 % 7.6 C
785 26-08-2018 17:20:00 22.2 C 38 % 7.22 C
786 26-08-2018 17:25:00 22.1 C 39 % 7.51 C
787 26-08-2018 17:30:00 21.9 C 38 % 6.95 C
788 26-08-2018 17:35:00 21.9 C 38 % 6.95 C
789 26-08-2018 17:40:00 21.7 C 37 % 6.39 C
790 26-08-2018 17:45:00 21.6 C 37 % 6.3 C
791 26-08-2018 17:50:00 21.4 C 38 % 6.51 C
792 26-08-2018 17:55:00 21.2 C 37 % 5.94 C
793 26-08-2018 18:00:00 21.1 C 37 % 5.86 C
794 26-08-2018 18:05:00 21.1 C 38 % 6.24 C
795 26-08-2018 18:10:00 21.2 C 39 % 6.71 C
796 26-08-2018 18:15:00 21.3 C 37 % 6.03 C
797 26-08-2018 18:20:00 21.3 C 37 % 6.03 C
798 26-08-2018 18:25:00 21.3 C 37 % 6.03 C
799 26-08-2018 18:30:00 21.2 C 38 % 6.33 C
800 26-08-2018 18:35:00 21.1 C 38 % 6.24 C
Sensor: Nr:Datum:Temp:Feuchte:Taupunkt:
Aussen-T/F 801 26-08-2018 18:40:00 21.1 C 39 % 6.62 C
802 26-08-2018 18:45:00 20.9 C 37 % 5.68 C
803 26-08-2018 18:50:00 20.8 C 37 % 5.59 C
804 26-08-2018 18:55:00 20.7 C 39 % 6.26 C
805 26-08-2018 19:00:00 20.8 C 38 % 5.97 C
806 26-08-2018 19:05:00 20.9 C 38 % 6.06 C
807 26-08-2018 19:10:00 21.1 C 38 % 6.24 C
808 26-08-2018 19:15:00 21.1 C 38 % 6.24 C
809 26-08-2018 19:20:00 20.9 C 38 % 6.06 C
810 26-08-2018 19:25:00 20.7 C 39 % 6.26 C
811 26-08-2018 19:30:00 20.6 C 39 % 6.17 C
812 26-08-2018 19:35:00 20.4 C 40 % 6.36 C
813 26-08-2018 19:40:00 20.3 C 40 % 6.27 C
814 26-08-2018 19:45:00 20.2 C 42 % 6.89 C
815 26-08-2018 19:50:00 20.1 C 44 % 7.48 C
816 26-08-2018 19:55:00 19.8 C 44 % 7.21 C
817 26-08-2018 20:00:00 19.6 C 45 % 7.35 C
818 26-08-2018 20:05:00 19.3 C 46 % 7.4 C
819 26-08-2018 20:10:00 19.1 C 47 % 7.53 C
820 26-08-2018 20:15:00 18.7 C 48 % 7.48 C
821 26-08-2018 20:20:00 18.3 C 48 % 7.11 C
822 26-08-2018 20:25:00 18.1 C 49 % 7.23 C
823 26-08-2018 20:30:00 17.8 C 51 % 7.54 C
824 26-08-2018 20:35:00 17.5 C 51 % 7.26 C
825 26-08-2018 20:40:00 17.2 C 51 % 6.98 C
Sensor: Nr:Datum:Temp:Feuchte:Taupunkt:
Aussen-T/F 826 26-08-2018 20:45:00 16.9 C 50 % 6.42 C
827 26-08-2018 20:50:00 16.7 C 51 % 6.52 C
828 26-08-2018 20:55:00 16.4 C 52 % 6.53 C
829 26-08-2018 21:00:00 16.2 C 53 % 6.62 C
830 26-08-2018 21:05:00 16 C 54 % 6.71 C
831 26-08-2018 21:10:00 15.8 C 53 % 6.25 C
832 26-08-2018 21:15:00 15.7 C 54 % 6.43 C
833 26-08-2018 21:20:00 15.6 C 55 % 6.6 C
834 26-08-2018 21:25:00 15.4 C 55 % 6.42 C
835 26-08-2018 21:30:00 15.2 C 55 % 6.23 C
836 26-08-2018 21:35:00 15.1 C 55 % 6.14 C
837 26-08-2018 21:40:00 14.9 C 56 % 6.21 C
838 26-08-2018 21:45:00 14.8 C 57 % 6.37 C
839 26-08-2018 21:50:00 14.7 C 56 % 6.02 C
840 26-08-2018 21:55:00 14.6 C 57 % 6.19 C
841 26-08-2018 22:00:00 14.6 C 58 % 6.44 C
842 26-08-2018 22:05:00 14.6 C 57 % 6.19 C
843 26-08-2018 22:10:00 14.6 C 58 % 6.44 C
844 26-08-2018 22:15:00 14.7 C 58 % 6.53 C
845 26-08-2018 22:20:00 14.7 C 58 % 6.53 C
846 26-08-2018 22:25:00 14.7 C 57 % 6.28 C
847 26-08-2018 22:30:00 14.7 C 56 % 6.02 C
848 26-08-2018 22:35:00 14.7 C 56 % 6.02 C
849 26-08-2018 22:40:00 14.8 C 58 % 6.63 C
850 26-08-2018 22:45:00 14.8 C 57 % 6.37 C
Sensor: Nr:Datum:Temp:Feuchte:Taupunkt:
Aussen-T/F 851 26-08-2018 22:50:00 14.9 C 59 % 6.97 C
852 26-08-2018 22:55:00 15.1 C 58 % 6.91 C
853 26-08-2018 23:00:00 15.2 C 57 % 6.75 C
854 26-08-2018 23:05:00 15.4 C 58 % 7.19 C
855 26-08-2018 23:10:00 15.4 C 57 % 6.93 C
856 26-08-2018 23:15:00 15.6 C 57 % 7.12 C
857 26-08-2018 23:20:00 15.6 C 57 % 7.12 C
858 26-08-2018 23:25:00 15.5 C 56 % 6.77 C
859 26-08-2018 23:30:00 15.4 C 56 % 6.68 C
860 26-08-2018 23:35:00 15.4 C 57 % 6.93 C
861 26-08-2018 23:40:00 15.3 C 57 % 6.84 C
862 26-08-2018 23:45:00 15.3 C 58 % 7.09 C
863 26-08-2018 23:50:00 15.4 C 59 % 7.44 C
864 26-08-2018 23:55:00 15.5 C 56 % 6.77 C
865 27-08-2018 00:00:00 15.7 C 56 % 6.96 C
866 27-08-2018 00:05:00 15.8 C 56 % 7.05 C
867 27-08-2018 00:10:00 16 C 55 % 6.97 C
868 27-08-2018 00:15:00 16.1 C 56 % 7.33 C
869 27-08-2018 00:20:00 16.1 C 57 % 7.59 C
870 27-08-2018 00:25:00 16.1 C 56 % 7.33 C
871 27-08-2018 00:30:00 16 C 56 % 7.24 C
872 27-08-2018 00:35:00 15.9 C 56 % 7.14 C
873 27-08-2018 00:40:00 15.9 C 57 % 7.4 C
874 27-08-2018 00:45:00 15.9 C 57 % 7.4 C
875 27-08-2018 00:50:00 16 C 54 % 6.71 C
Sensor: Nr:Datum:Temp:Feuchte:Taupunkt:
Aussen-T/F 876 27-08-2018 00:55:00 16.1 C 58 % 7.84 C
877 27-08-2018 01:00:00 16.1 C 57 % 7.59 C
878 27-08-2018 01:05:00 16.1 C 57 % 7.59 C
879 27-08-2018 01:10:00 16.2 C 52 % 6.34 C
880 27-08-2018 01:15:00 16.6 C 50 % 6.15 C
881 27-08-2018 01:20:00 16.8 C 52 % 6.9 C
882 27-08-2018 01:25:00 16.9 C 53 % 7.27 C
883 27-08-2018 01:30:00 16.9 C 51 % 6.71 C
884 27-08-2018 01:35:00 16.9 C 50 % 6.42 C
885 27-08-2018 01:40:00 17 C 51 % 6.8 C
886 27-08-2018 01:45:00 17.1 C 53 % 7.45 C
887 27-08-2018 01:50:00 17.2 C 54 % 7.82 C
888 27-08-2018 01:55:00 17.1 C 52 % 7.18 C
889 27-08-2018 02:00:00 17.1 C 57 % 8.52 C
890 27-08-2018 02:05:00 16.9 C 62 % 9.58 C
891 27-08-2018 02:10:00 16.6 C 66 % 10.23 C
892 27-08-2018 02:15:00 16.3 C 66 % 9.94 C
893 27-08-2018 02:20:00 16 C 69 % 10.32 C
894 27-08-2018 02:25:00 15.7 C 71 % 10.46 C
895 27-08-2018 02:30:00 15.5 C 71 % 10.27 C
896 27-08-2018 02:35:00 15.3 C 71 % 10.08 C
897 27-08-2018 02:40:00 15.1 C 68 % 9.24 C
898 27-08-2018 02:45:00 15.2 C 67 % 9.12 C
899 27-08-2018 02:50:00 15.2 C 69 % 9.56 C
900 27-08-2018 02:55:00 15.3 C 68 % 9.43 C
Sensor: Nr:Datum:Temp:Feuchte:Taupunkt:
Aussen-T/F 901 27-08-2018 03:00:00 15.3 C 65 % 8.77 C
902 27-08-2018 03:05:00 15.4 C 66 % 9.09 C
903 27-08-2018 03:10:00 15.6 C 69 % 9.94 C
904 27-08-2018 03:15:00 15.6 C 69 % 9.94 C
905 27-08-2018 03:20:00 15.6 C 70 % 10.15 C
906 27-08-2018 03:25:00 15.5 C 66 % 9.18 C
907 27-08-2018 03:30:00 15.5 C 67 % 9.41 C
908 27-08-2018 03:35:00 15.5 C 66 % 9.18 C
909 27-08-2018 03:40:00 15.6 C 65 % 9.05 C
910 27-08-2018 03:45:00 15.6 C 65 % 9.05 C
911 27-08-2018 03:50:00 15.7 C 64 % 8.92 C
912 27-08-2018 03:55:00 15.8 C 65 % 9.24 C
913 27-08-2018 04:00:00 15.9 C 65 % 9.34 C
914 27-08-2018 04:05:00 16.1 C 59 % 8.09 C
915 27-08-2018 04:10:00 16.3 C 61 % 8.77 C
916 27-08-2018 04:15:00 16.4 C 62 % 9.11 C
917 27-08-2018 04:20:00 16.4 C 63 % 9.35 C
918 27-08-2018 04:25:00 16.3 C 64 % 9.48 C
919 27-08-2018 04:30:00 16.3 C 68 % 10.39 C
920 27-08-2018 04:35:00 16.1 C 67 % 9.98 C
921 27-08-2018 04:40:00 15.9 C 68 % 10.01 C
922 27-08-2018 04:45:00 15.7 C 69 % 10.03 C
923 27-08-2018 04:50:00 15.6 C 68 % 9.72 C
924 27-08-2018 04:55:00 15.5 C 68 % 9.63 C
925 27-08-2018 05:00:00 15.5 C 70 % 10.06 C
Sensor: Nr:Datum:Temp:Feuchte:Taupunkt:
Aussen-T/F 926 27-08-2018 05:05:00 15.4 C 69 % 9.75 C
927 27-08-2018 05:10:00 15.5 C 69 % 9.84 C
928 27-08-2018 05:15:00 15.5 C 68 % 9.63 C
929 27-08-2018 05:20:00 15.6 C 67 % 9.5 C
930 27-08-2018 05:25:00 15.6 C 67 % 9.5 C
931 27-08-2018 05:30:00 15.6 C 65 % 9.05 C
932 27-08-2018 05:35:00 15.7 C 63 % 8.68 C
933 27-08-2018 05:40:00 15.9 C 63 % 8.87 C
934 27-08-2018 05:45:00 16.1 C 62 % 8.82 C
935 27-08-2018 05:50:00 16.2 C 61 % 8.68 C
936 27-08-2018 05:55:00 16.2 C 63 % 9.16 C
937 27-08-2018 06:00:00 16.3 C 65 % 9.71 C
938 27-08-2018 06:05:00 16.3 C 70 % 10.82 C
939 27-08-2018 06:10:00 16.1 C 72 % 11.06 C
940 27-08-2018 06:15:00 15.8 C 74 % 11.18 C
941 27-08-2018 06:20:00 15.7 C 76 % 11.48 C
942 27-08-2018 06:25:00 15.4 C 77 % 11.39 C
943 27-08-2018 06:30:00 15.3 C 78 % 11.49 C
944 27-08-2018 06:35:00 15.1 C 78 % 11.3 C
945 27-08-2018 06:40:00 15.1 C 78 % 11.3 C
946 27-08-2018 06:45:00 15.1 C 79 % 11.49 C
947 27-08-2018 06:50:00 15.1 C 79 % 11.49 C
948 27-08-2018 06:55:00 15.2 C 78 % 11.39 C
949 27-08-2018 07:00:00 15.3 C 78 % 11.49 C
950 27-08-2018 07:05:00 15.4 C 78 % 11.59 C
Sensor: Nr:Datum:Temp:Feuchte:Taupunkt:
Aussen-T/F 951 27-08-2018 07:10:00 15.5 C 79 % 11.88 C
952 27-08-2018 07:15:00 15.6 C 78 % 11.78 C
953 27-08-2018 07:20:00 15.6 C 79 % 11.97 C
954 27-08-2018 07:25:00 15.6 C 80 % 12.16 C
955 27-08-2018 07:30:00 15.6 C 82 % 12.54 C
956 27-08-2018 07:35:00 15.6 C 83 % 12.72 C
957 27-08-2018 07:40:00 15.4 C 84 % 12.71 C
958 27-08-2018 07:45:00 15.3 C 84 % 12.61 C
959 27-08-2018 07:50:00 15.3 C 85 % 12.79 C
960 27-08-2018 07:55:00 15.2 C 86 % 12.88 C
961 27-08-2018 08:00:00 15.1 C 86 % 12.78 C
962 27-08-2018 08:05:00 15.1 C 86 % 12.78 C
963 27-08-2018 08:10:00 15 C 86 % 12.68 C
964 27-08-2018 08:15:00 15 C 85 % 12.5 C
965 27-08-2018 08:20:00 15 C 85 % 12.5 C
966 27-08-2018 08:25:00 15.1 C 85 % 12.6 C
967 27-08-2018 08:30:00 15.1 C 85 % 12.6 C
968 27-08-2018 08:35:00 15.1 C 85 % 12.6 C
969 27-08-2018 08:40:00 15.2 C 84 % 12.52 C
970 27-08-2018 08:45:00 15.2 C 85 % 12.7 C
971 27-08-2018 08:50:00 15.3 C 84 % 12.61 C
972 27-08-2018 08:55:00 15.3 C 84 % 12.61 C
973 27-08-2018 09:00:00 15.3 C 84 % 12.61 C
974 27-08-2018 09:05:00 15.4 C 84 % 12.71 C
975 27-08-2018 09:10:00 15.4 C 83 % 12.53 C
Sensor: Nr:Datum:Temp:Feuchte:Taupunkt:
Aussen-T/F 976 27-08-2018 09:15:00 15.5 C 83 % 12.63 C
977 27-08-2018 09:20:00 15.6 C 83 % 12.72 C
978 27-08-2018 09:25:00 15.6 C 83 % 12.72 C
979 27-08-2018 09:30:00 15.6 C 83 % 12.72 C
980 27-08-2018 09:35:00 15.7 C 83 % 12.82 C
981 27-08-2018 09:40:00 15.7 C 83 % 12.82 C
982 27-08-2018 09:45:00 15.7 C 82 % 12.64 C
983 27-08-2018 09:50:00 15.8 C 82 % 12.74 C
984 27-08-2018 09:55:00 15.8 C 82 % 12.74 C
985 27-08-2018 10:00:00 15.9 C 82 % 12.83 C
986 27-08-2018 10:05:00 15.9 C 82 % 12.83 C
987 27-08-2018 10:10:00 16.1 C 82 % 13.03 C
988 27-08-2018 10:15:00 16.1 C 81 % 12.84 C
989 27-08-2018 10:20:00 16.2 C 81 % 12.94 C
990 27-08-2018 10:25:00 16.2 C 81 % 12.94 C
991 27-08-2018 10:30:00 16.2 C 82 % 13.13 C
992 27-08-2018 10:35:00 16.2 C 81 % 12.94 C
993 27-08-2018 10:40:00 16.2 C 81 % 12.94 C
994 27-08-2018 10:45:00 16.2 C 81 % 12.94 C
995 27-08-2018 10:50:00 16.3 C 81 % 13.04 C
996 27-08-2018 10:55:00 16.3 C 81 % 13.04 C
997 27-08-2018 11:00:00 16.4 C 81 % 13.13 C
998 27-08-2018 11:05:00 16.5 C 81 % 13.23 C
999 27-08-2018 11:10:00 16.6 C 81 % 13.33 C
1000 27-08-2018 11:15:00 16.7 C 80 % 13.23 C
Sensor: Nr:Datum:Temp:Feuchte:Taupunkt:
Aussen-T/F 1001 27-08-2018 11:20:00 16.8 C 80 % 13.33 C
1002 27-08-2018 11:25:00 16.9 C 80 % 13.43 C
1003 27-08-2018 11:30:00 17.1 C 80 % 13.62 C
1004 27-08-2018 11:35:00 17.1 C 80 % 13.62 C
1005 27-08-2018 11:40:00 17.2 C 80 % 13.72 C
1006 27-08-2018 11:45:00 17.4 C 79 % 13.72 C
1007 27-08-2018 11:50:00 17.6 C 79 % 13.92 C
1008 27-08-2018 11:55:00 17.7 C 79 % 14.01 C
1009 27-08-2018 12:00:00 17.8 C 78 % 13.91 C
1010 27-08-2018 12:05:00 17.9 C 78 % 14.01 C
1011 27-08-2018 12:10:00 18.1 C 77 % 14.01 C
1012 27-08-2018 12:15:00 18.1 C 77 % 14.01 C
1013 27-08-2018 12:20:00 18.2 C 78 % 14.3 C
1014 27-08-2018 12:25:00 18.3 C 77 % 14.2 C
1015 27-08-2018 12:30:00 18.3 C 77 % 14.2 C
1016 27-08-2018 12:35:00 18.3 C 77 % 14.2 C
1017 27-08-2018 12:40:00 18.3 C 77 % 14.2 C
1018 27-08-2018 12:45:00 18.4 C 76 % 14.1 C
1019 27-08-2018 12:50:00 18.5 C 77 % 14.39 C
1020 27-08-2018 12:55:00 18.7 C 77 % 14.59 C
1021 27-08-2018 13:00:00 18.9 C 76 % 14.58 C
1022 27-08-2018 13:05:00 19.3 C 75 % 14.76 C
1023 27-08-2018 13:10:00 19.4 C 74 % 14.65 C
1024 27-08-2018 13:15:00 19.4 C 74 % 14.65 C
1025 27-08-2018 13:20:00 19.5 C 75 % 14.95 C
Sensor: Nr:Datum:Temp:Feuchte:Taupunkt:
Aussen-T/F 1026 27-08-2018 13:25:00 19.5 C 74 % 14.74 C
1027 27-08-2018 13:30:00 19.4 C 74 % 14.65 C
1028 27-08-2018 13:35:00 19.6 C 74 % 14.84 C
1029 27-08-2018 13:40:00 19.7 C 73 % 14.73 C
1030 27-08-2018 13:45:00 19.8 C 73 % 14.82 C
1031 27-08-2018 13:50:00 19.9 C 73 % 14.92 C
1032 27-08-2018 13:55:00 20.1 C 72 % 14.9 C
1033 27-08-2018 14:00:00 20.2 C 72 % 14.99 C
1034 27-08-2018 14:05:00 20.1 C 72 % 14.9 C
1035 27-08-2018 14:10:00 20.1 C 72 % 14.9 C
1036 27-08-2018 14:15:00 20.2 C 72 % 14.99 C
1037 27-08-2018 14:20:00 20.1 C 72 % 14.9 C
1038 27-08-2018 14:25:00 20.1 C 72 % 14.9 C
1039 27-08-2018 14:30:00 20.2 C 72 % 14.99 C
1040 27-08-2018 14:35:00 20.3 C 72 % 15.09 C
1041 27-08-2018 14:40:00 20.3 C 72 % 15.09 C
1042 27-08-2018 14:45:00 20.2 C 72 % 14.99 C
1043 27-08-2018 14:50:00 20.1 C 73 % 15.11 C
1044 27-08-2018 14:55:00 20.3 C 72 % 15.09 C
1045 27-08-2018 15:00:00 20.3 C 73 % 15.3 C
1046 27-08-2018 15:05:00 20.4 C 73 % 15.4 C
1047 27-08-2018 15:10:00 20.5 C 73 % 15.5 C
1048 27-08-2018 15:15:00 20.6 C 73 % 15.59 C
1049 27-08-2018 15:20:00 20.7 C 72 % 15.47 C
1050 27-08-2018 15:25:00 20.8 C 72 % 15.57 C
Sensor: Nr:Datum:Temp:Feuchte:Taupunkt:
Aussen-T/F 1051 27-08-2018 15:30:00 20.9 C 71 % 15.45 C
1052 27-08-2018 15:35:00 21.1 C 71 % 15.64 C
1053 27-08-2018 15:40:00 21.1 C 70 % 15.42 C
1054 27-08-2018 15:45:00 21.1 C 70 % 15.42 C
1055 27-08-2018 15:50:00 21.2 C 70 % 15.51 C
1056 27-08-2018 15:55:00 21.1 C 70 % 15.42 C
1057 27-08-2018 16:00:00 21.1 C 71 % 15.64 C
1058 27-08-2018 16:05:00 21.1 C 70 % 15.42 C
1059 27-08-2018 16:10:00 21.1 C 71 % 15.64 C
1060 27-08-2018 16:15:00 21 C 71 % 15.54 C
1061 27-08-2018 16:20:00 21.1 C 71 % 15.64 C
1062 27-08-2018 16:25:00 21.2 C 71 % 15.73 C
1063 27-08-2018 16:30:00 21.6 C 70 % 15.89 C
1064 27-08-2018 16:35:00 22.2 C 68 % 16.01 C
1065 27-08-2018 16:40:00 22.4 C 67 % 15.97 C
1066 27-08-2018 16:45:00 22.3 C 67 % 15.88 C
1067 27-08-2018 16:50:00 22.1 C 68 % 15.92 C
1068 27-08-2018 16:55:00 22.2 C 68 % 16.01 C
1069 27-08-2018 17:00:00 22.3 C 67 % 15.88 C
1070 27-08-2018 17:05:00 22.5 C 68 % 16.3 C
1071 27-08-2018 17:10:00 22.7 C 67 % 16.26 C
1072 27-08-2018 17:15:00 22.5 C 66 % 15.83 C
1073 27-08-2018 17:20:00 22.3 C 67 % 15.88 C
1074 27-08-2018 17:25:00 22.3 C 68 % 16.11 C
1075 27-08-2018 17:30:00 22.8 C 67 % 16.35 C
Sensor: Nr:Datum:Temp:Feuchte:Taupunkt:
Aussen-T/F 1076 27-08-2018 17:35:00 23.1 C 65 % 16.16 C
1077 27-08-2018 17:40:00 23.2 C 64 % 16.01 C
1078 27-08-2018 17:45:00 23.3 C 64 % 16.11 C
1079 27-08-2018 17:50:00 23.4 C 62 % 15.71 C
1080 27-08-2018 17:55:00 23.4 C 63 % 15.96 C
1081 27-08-2018 18:00:00 23.5 C 62 % 15.8 C
1082 27-08-2018 18:05:00 23.5 C 63 % 16.05 C
1083 27-08-2018 18:10:00 23.7 C 62 % 15.99 C
1084 27-08-2018 18:15:00 23.7 C 63 % 16.24 C
1085 27-08-2018 18:20:00 23.4 C 62 % 15.71 C
1086 27-08-2018 18:25:00 23.2 C 64 % 16.01 C
1087 27-08-2018 18:30:00 23.3 C 64 % 16.11 C
1088 27-08-2018 18:35:00 23.4 C 63 % 15.96 C
1089 27-08-2018 18:40:00 23.4 C 64 % 16.2 C
1090 27-08-2018 18:45:00 23.3 C 63 % 15.86 C
1091 27-08-2018 18:50:00 23.2 C 64 % 16.01 C
1092 27-08-2018 18:55:00 23.1 C 64 % 15.92 C
1093 27-08-2018 19:00:00 22.8 C 65 % 15.88 C
1094 27-08-2018 19:05:00 22.6 C 66 % 15.93 C
1095 27-08-2018 19:10:00 22.4 C 66 % 15.74 C
1096 27-08-2018 19:15:00 22.2 C 67 % 15.78 C
1097 27-08-2018 19:20:00 22 C 68 % 15.82 C
1098 27-08-2018 19:25:00 21.8 C 68 % 15.63 C
1099 27-08-2018 19:30:00 21.7 C 69 % 15.77 C
1100 27-08-2018 19:35:00 21.6 C 69 % 15.67 C
Sensor: Nr:Datum:Temp:Feuchte:Taupunkt:
Aussen-T/F 1101 27-08-2018 19:40:00 21.4 C 69 % 15.48 C
1102 27-08-2018 19:45:00 21.3 C 69 % 15.38 C
1103 27-08-2018 19:50:00 21.2 C 70 % 15.51 C
1104 27-08-2018 19:55:00 21.2 C 71 % 15.73 C
1105 27-08-2018 20:00:00 21.1 C 72 % 15.86 C
1106 27-08-2018 20:05:00 20.9 C 71 % 15.45 C
1107 27-08-2018 20:10:00 20.8 C 72 % 15.57 C
1108 27-08-2018 20:15:00 20.7 C 72 % 15.47 C
1109 27-08-2018 20:20:00 20.6 C 71 % 15.16 C
1110 27-08-2018 20:25:00 20.4 C 70 % 14.75 C
1111 27-08-2018 20:30:00 20.4 C 68 % 14.3 C
1112 27-08-2018 20:35:00 20.4 C 68 % 14.3 C
1113 27-08-2018 20:40:00 20.3 C 67 % 13.97 C
1114 27-08-2018 20:45:00 20.3 C 65 % 13.51 C
1115 27-08-2018 20:50:00 20.2 C 65 % 13.41 C
1116 27-08-2018 20:55:00 20.2 C 65 % 13.41 C
1117 27-08-2018 21:00:00 20.2 C 61 % 12.44 C
1118 27-08-2018 21:05:00 20.2 C 61 % 12.44 C
1119 27-08-2018 21:10:00 20.2 C 64 % 13.18 C
1120 27-08-2018 21:15:00 20.1 C 66 % 13.55 C
1121 27-08-2018 21:20:00 19.9 C 62 % 12.41 C
1122 27-08-2018 21:25:00 19.8 C 64 % 12.8 C
1123 27-08-2018 21:30:00 19.7 C 63 % 12.46 C
1124 27-08-2018 21:35:00 19.5 C 62 % 12.03 C
1125 27-08-2018 21:40:00 19.4 C 63 % 12.18 C
Sensor: Nr:Datum:Temp:Feuchte:Taupunkt:
Aussen-T/F 1126 27-08-2018 21:45:00 19.2 C 62 % 11.75 C
1127 27-08-2018 21:50:00 19.1 C 63 % 11.9 C
1128 27-08-2018 21:55:00 19 C 61 % 11.31 C
1129 27-08-2018 22:00:00 18.9 C 61 % 11.22 C
1130 27-08-2018 22:05:00 18.8 C 61 % 11.13 C
1131 27-08-2018 22:10:00 18.8 C 62 % 11.37 C
1132 27-08-2018 22:15:00 18.7 C 61 % 11.03 C
1133 27-08-2018 22:20:00 18.7 C 61 % 11.03 C
1134 27-08-2018 22:25:00 18.7 C 60 % 10.78 C
1135 27-08-2018 22:30:00 18.7 C 60 % 10.78 C
1136 27-08-2018 22:35:00 18.8 C 61 % 11.13 C
1137 27-08-2018 22:40:00 18.7 C 60 % 10.78 C
1138 27-08-2018 22:45:00 18.7 C 62 % 11.28 C
1139 27-08-2018 22:50:00 18.6 C 63 % 11.42 C
1140 27-08-2018 22:55:00 18.4 C 64 % 11.47 C
1141 27-08-2018 23:00:00 18.3 C 65 % 11.61 C
1142 27-08-2018 23:05:00 18.1 C 66 % 11.65 C
1143 27-08-2018 23:10:00 17.7 C 67 % 11.5 C
1144 27-08-2018 23:15:00 17.4 C 69 % 11.66 C
1145 27-08-2018 23:20:00 17.1 C 70 % 11.59 C
1146 27-08-2018 23:25:00 16.8 C 71 % 11.52 C
1147 27-08-2018 23:30:00 16.6 C 72 % 11.54 C
1148 27-08-2018 23:35:00 16.4 C 73 % 11.55 C
1149 27-08-2018 23:40:00 16.3 C 73 % 11.46 C
1150 27-08-2018 23:45:00 16.2 C 74 % 11.56 C
Sensor: Nr:Datum:Temp:Feuchte:Taupunkt:
Aussen-T/F 1151 27-08-2018 23:50:00 16 C 74 % 11.37 C
1152 27-08-2018 23:55:00 15.8 C 75 % 11.38 C
1153 28-08-2018 00:00:00 15.7 C 76 % 11.48 C
1154 28-08-2018 00:05:00 15.7 C 76 % 11.48 C
1155 28-08-2018 00:10:00 15.8 C 77 % 11.78 C
1156 28-08-2018 00:15:00 15.8 C 77 % 11.78 C
1157 28-08-2018 00:20:00 15.8 C 77 % 11.78 C
1158 28-08-2018 00:25:00 15.9 C 77 % 11.88 C
1159 28-08-2018 00:30:00 15.9 C 77 % 11.88 C
1160 28-08-2018 00:35:00 15.9 C 77 % 11.88 C
1161 28-08-2018 00:40:00 15.9 C 77 % 11.88 C
1162 28-08-2018 00:45:00 15.9 C 77 % 11.88 C
1163 28-08-2018 00:50:00 15.9 C 77 % 11.88 C
1164 28-08-2018 00:55:00 15.8 C 77 % 11.78 C
1165 28-08-2018 01:00:00 15.8 C 77 % 11.78 C
1166 28-08-2018 01:05:00 15.8 C 77 % 11.78 C
1167 28-08-2018 01:10:00 15.7 C 77 % 11.68 C
1168 28-08-2018 01:15:00 15.8 C 77 % 11.78 C
1169 28-08-2018 01:20:00 15.8 C 77 % 11.78 C
1170 28-08-2018 01:25:00 15.8 C 78 % 11.97 C
1171 28-08-2018 01:30:00 15.8 C 77 % 11.78 C
1172 28-08-2018 01:35:00 15.8 C 77 % 11.78 C
1173 28-08-2018 01:40:00 15.7 C 77 % 11.68 C
1174 28-08-2018 01:45:00 15.7 C 77 % 11.68 C
1175 28-08-2018 01:50:00 15.7 C 77 % 11.68 C
Sensor: Nr:Datum:Temp:Feuchte:Taupunkt:
Aussen-T/F 1176 28-08-2018 01:55:00 15.7 C 77 % 11.68 C
1177 28-08-2018 02:00:00 15.7 C 78 % 11.88 C
1178 28-08-2018 02:05:00 15.7 C 78 % 11.88 C
1179 28-08-2018 02:10:00 15.6 C 78 % 11.78 C
1180 28-08-2018 02:15:00 15.6 C 78 % 11.78 C
1181 28-08-2018 02:20:00 15.6 C 78 % 11.78 C
1182 28-08-2018 02:25:00 15.6 C 78 % 11.78 C
1183 28-08-2018 02:30:00 15.6 C 77 % 11.59 C
1184 28-08-2018 02:35:00 15.5 C 78 % 11.68 C
1185 28-08-2018 02:40:00 15.5 C 77 % 11.49 C
1186 28-08-2018 02:45:00 15.5 C 78 % 11.68 C
1187 28-08-2018 02:50:00 15.4 C 78 % 11.59 C
1188 28-08-2018 02:55:00 15.3 C 77 % 11.3 C
1189 28-08-2018 03:00:00 15.1 C 78 % 11.3 C
1190 28-08-2018 03:05:00 14.8 C 78 % 11 C
1191 28-08-2018 03:10:00 14.6 C 79 % 11 C
1192 28-08-2018 03:15:00 14.4 C 80 % 11 C
1193 28-08-2018 03:20:00 14.2 C 80 % 10.8 C
1194 28-08-2018 03:25:00 14 C 81 % 10.79 C
1195 28-08-2018 03:30:00 13.8 C 81 % 10.6 C
1196 28-08-2018 03:35:00 13.6 C 81 % 10.4 C
1197 28-08-2018 03:40:00 13.4 C 82 % 10.39 C
1198 28-08-2018 03:45:00 13.3 C 83 % 10.48 C
1199 28-08-2018 03:50:00 13.2 C 83 % 10.38 C
1200 28-08-2018 03:55:00 13.1 C 84 % 10.46 C
Sensor: Nr:Datum:Temp:Feuchte:Taupunkt:
Aussen-T/F 1201 28-08-2018 04:00:00 13 C 84 % 10.36 C
1202 28-08-2018 04:05:00 12.9 C 84 % 10.26 C
1203 28-08-2018 04:10:00 12.8 C 84 % 10.17 C
1204 28-08-2018 04:15:00 12.7 C 85 % 10.25 C
1205 28-08-2018 04:20:00 12.6 C 85 % 10.15 C
1206 28-08-2018 04:25:00 12.4 C 85 % 9.95 C
1207 28-08-2018 04:30:00 12.3 C 85 % 9.85 C
1208 28-08-2018 04:35:00 12.3 C 86 % 10.03 C
1209 28-08-2018 04:40:00 12.2 C 86 % 9.93 C
1210 28-08-2018 04:45:00 12.1 C 86 % 9.83 C
1211 28-08-2018 04:50:00 12.1 C 87 % 10 C
1212 28-08-2018 04:55:00 12.1 C 87 % 10 C
1213 28-08-2018 05:00:00 12.1 C 87 % 10 C
1214 28-08-2018 05:05:00 12.2 C 88 % 10.27 C
1215 28-08-2018 05:10:00 12.2 C 88 % 10.27 C
1216 28-08-2018 05:15:00 12.3 C 88 % 10.37 C
1217 28-08-2018 05:20:00 12.3 C 88 % 10.37 C
1218 28-08-2018 05:25:00 12.4 C 88 % 10.47 C
1219 28-08-2018 05:30:00 12.5 C 87 % 10.4 C
1220 28-08-2018 05:35:00 12.6 C 87 % 10.5 C
1221 28-08-2018 05:40:00 12.7 C 87 % 10.59 C
1222 28-08-2018 05:45:00 12.7 C 87 % 10.59 C
1223 28-08-2018 05:50:00 12.7 C 87 % 10.59 C
1224 28-08-2018 05:55:00 12.7 C 87 % 10.59 C
1225 28-08-2018 06:00:00 12.8 C 86 % 10.52 C
Sensor: Nr:Datum:Temp:Feuchte:Taupunkt:
Aussen-T/F 1226 28-08-2018 06:05:00 12.8 C 86 % 10.52 C
1227 28-08-2018 06:10:00 12.8 C 86 % 10.52 C
1228 28-08-2018 06:15:00 12.8 C 86 % 10.52 C
1229 28-08-2018 06:20:00 12.8 C 86 % 10.52 C
1230 28-08-2018 06:25:00 12.8 C 86 % 10.52 C
1231 28-08-2018 06:30:00 12.8 C 86 % 10.52 C
1232 28-08-2018 06:35:00 12.8 C 86 % 10.52 C
1233 28-08-2018 06:40:00 12.8 C 86 % 10.52 C
1234 28-08-2018 06:45:00 12.8 C 86 % 10.52 C
1235 28-08-2018 06:50:00 12.8 C 86 % 10.52 C
1236 28-08-2018 06:55:00 12.8 C 86 % 10.52 C
1237 28-08-2018 07:00:00 12.9 C 86 % 10.62 C
1238 28-08-2018 07:05:00 12.9 C 86 % 10.62 C
1239 28-08-2018 07:10:00 12.9 C 86 % 10.62 C
1240 28-08-2018 07:15:00 12.9 C 86 % 10.62 C
1241 28-08-2018 07:20:00 13 C 86 % 10.72 C
1242 28-08-2018 07:25:00 13 C 86 % 10.72 C
1243 28-08-2018 07:30:00 13.1 C 86 % 10.81 C
1244 28-08-2018 07:35:00 13.1 C 86 % 10.81 C
1245 28-08-2018 07:40:00 13.2 C 86 % 10.91 C
1246 28-08-2018 07:45:00 13.2 C 86 % 10.91 C
1247 28-08-2018 07:50:00 13.3 C 86 % 11.01 C
1248 28-08-2018 07:55:00 13.3 C 85 % 10.83 C
1249 28-08-2018 08:00:00 13.4 C 84 % 10.75 C
1250 28-08-2018 08:05:00 13.6 C 84 % 10.95 C
Sensor: Nr:Datum:Temp:Feuchte:Taupunkt:
Aussen-T/F 1251 28-08-2018 08:10:00 13.6 C 84 % 10.95 C
1252 28-08-2018 08:15:00 13.7 C 83 % 10.87 C
1253 28-08-2018 08:20:00 13.7 C 83 % 10.87 C
1254 28-08-2018 08:25:00 13.7 C 83 % 10.87 C
1255 28-08-2018 08:30:00 13.7 C 84 % 11.05 C
1256 28-08-2018 08:35:00 13.8 C 84 % 11.15 C
1257 28-08-2018 08:40:00 13.8 C 84 % 11.15 C
1258 28-08-2018 08:45:00 13.8 C 83 % 10.97 C
1259 28-08-2018 08:50:00 13.8 C 83 % 10.97 C
1260 28-08-2018 08:55:00 13.9 C 83 % 11.06 C
1261 28-08-2018 09:00:00 13.9 C 83 % 11.06 C
1262 28-08-2018 09:05:00 14 C 83 % 11.16 C
1263 28-08-2018 09:10:00 14.1 C 83 % 11.26 C
1264 28-08-2018 09:15:00 14.2 C 83 % 11.36 C
1265 28-08-2018 09:20:00 14.2 C 83 % 11.36 C
1266 28-08-2018 09:25:00 14.3 C 83 % 11.45 C
1267 28-08-2018 09:30:00 14.3 C 83 % 11.45 C
1268 28-08-2018 09:35:00 14.4 C 83 % 11.55 C
1269 28-08-2018 09:40:00 14.6 C 84 % 11.93 C
1270 28-08-2018 09:45:00 14.6 C 84 % 11.93 C
1271 28-08-2018 09:50:00 14.7 C 84 % 12.03 C
1272 28-08-2018 09:55:00 14.8 C 84 % 12.12 C
1273 28-08-2018 10:00:00 14.8 C 82 % 11.76 C
1274 28-08-2018 10:05:00 14.9 C 83 % 12.04 C
1275 28-08-2018 10:10:00 15.1 C 83 % 12.24 C
Sensor: Nr:Datum:Temp:Feuchte:Taupunkt:
Aussen-T/F 1276 28-08-2018 10:15:00 15.3 C 81 % 12.06 C
1277 28-08-2018 10:20:00 15.4 C 81 % 12.16 C
1278 28-08-2018 10:25:00 15.8 C 80 % 12.36 C
1279 28-08-2018 10:30:00 16.1 C 79 % 12.46 C
1280 28-08-2018 10:35:00 16.5 C 78 % 12.65 C
1281 28-08-2018 10:40:00 17 C 77 % 12.94 C
1282 28-08-2018 10:45:00 17.3 C 75 % 12.83 C
1283 28-08-2018 10:50:00 17.5 C 74 % 12.82 C
1284 28-08-2018 10:55:00 17.8 C 73 % 12.9 C
1285 28-08-2018 11:00:00 18 C 71 % 12.67 C
1286 28-08-2018 11:05:00 18.2 C 70 % 12.64 C
1287 28-08-2018 11:10:00 18.4 C 69 % 12.61 C
1288 28-08-2018 11:15:00 18.5 C 69 % 12.71 C
1289 28-08-2018 11:20:00 18.7 C 66 % 12.22 C
1290 28-08-2018 11:25:00 18.8 C 67 % 12.55 C
1291 28-08-2018 11:30:00 18.9 C 67 % 12.64 C
1292 28-08-2018 11:35:00 19 C 66 % 12.51 C
1293 28-08-2018 11:40:00 19.1 C 65 % 12.37 C
1294 28-08-2018 11:45:00 19.2 C 65 % 12.47 C
1295 28-08-2018 11:50:00 19.3 C 64 % 12.32 C
1296 28-08-2018 11:55:00 19.3 C 64 % 12.32 C
1297 28-08-2018 12:00:00 19.3 C 63 % 12.09 C
1298 28-08-2018 12:05:00 19.5 C 63 % 12.27 C
1299 28-08-2018 12:10:00 19.6 C 62 % 12.13 C
1300 28-08-2018 12:15:00 19.6 C 62 % 12.13 C
Sensor: Nr:Datum:Temp:Feuchte:Taupunkt:
Aussen-T/F 1301 28-08-2018 12:20:00 19.7 C 62 % 12.22 C
1302 28-08-2018 12:25:00 19.8 C 61 % 12.07 C
1303 28-08-2018 12:30:00 19.9 C 60 % 11.91 C
1304 28-08-2018 12:35:00 19.9 C 61 % 12.16 C
1305 28-08-2018 12:40:00 20 C 60 % 12 C
1306 28-08-2018 12:45:00 20.1 C 60 % 12.1 C
1307 28-08-2018 12:50:00 20.3 C 59 % 12.03 C
1308 28-08-2018 12:55:00 20.4 C 59 % 12.12 C
1309 28-08-2018 13:00:00 20.4 C 59 % 12.12 C
1310 28-08-2018 13:05:00 20.5 C 59 % 12.22 C
1311 28-08-2018 13:10:00 20.6 C 58 % 12.05 C
1312 28-08-2018 13:15:00 20.7 C 56 % 11.61 C
1313 28-08-2018 13:20:00 20.7 C 56 % 11.61 C
1314 28-08-2018 13:25:00 20.8 C 57 % 11.97 C
1315 28-08-2018 13:30:00 20.9 C 56 % 11.8 C
1316 28-08-2018 13:35:00 21 C 56 % 11.89 C
1317 28-08-2018 13:40:00 21.1 C 56 % 11.99 C
1318 28-08-2018 13:45:00 21.4 C 55 % 11.99 C
1319 28-08-2018 13:50:00 21.7 C 54 % 11.99 C
1320 28-08-2018 13:55:00 21.9 C 54 % 12.18 C
1321 28-08-2018 14:00:00 22.1 C 53 % 12.08 C
1322 28-08-2018 14:05:00 22.3 C 53 % 12.26 C
1323 28-08-2018 14:10:00 22.4 C 52 % 12.07 C
1324 28-08-2018 14:15:00 22.4 C 52 % 12.07 C
1325 28-08-2018 14:20:00 22.5 C 52 % 12.16 C
Sensor: Nr:Datum:Temp:Feuchte:Taupunkt:
Aussen-T/F 1326 28-08-2018 14:25:00 22.5 C 52 % 12.16 C
1327 28-08-2018 14:30:00 22.6 C 53 % 12.54 C
1328 28-08-2018 14:35:00 22.7 C 51 % 12.05 C
1329 28-08-2018 14:40:00 22.8 C 50 % 11.84 C
1330 28-08-2018 14:45:00 23 C 50 % 12.02 C
1331 28-08-2018 14:50:00 23.2 C 50 % 12.21 C
1332 28-08-2018 14:55:00 23.3 C 50 % 12.3 C
1333 28-08-2018 15:00:00 23.3 C 49 % 11.99 C
1334 28-08-2018 15:05:00 23.6 C 49 % 12.27 C
1335 28-08-2018 15:10:00 23.7 C 48 % 12.04 C
1336 28-08-2018 15:15:00 23.7 C 49 % 12.36 C
1337 28-08-2018 15:20:00 23.6 C 48 % 11.95 C
1338 28-08-2018 15:25:00 23.6 C 49 % 12.27 C
1339 28-08-2018 15:30:00 23.8 C 48 % 12.14 C
1340 28-08-2018 15:35:00 23.8 C 48 % 12.14 C
1341 28-08-2018 15:40:00 23.8 C 48 % 12.14 C
1342 28-08-2018 15:45:00 23.9 C 48 % 12.23 C
1343 28-08-2018 15:50:00 23.9 C 48 % 12.23 C
1344 28-08-2018 15:55:00 24 C 47 % 12 C
1345 28-08-2018 16:00:00 24.1 C 46 % 11.76 C
1346 28-08-2018 16:05:00 24.1 C 47 % 12.09 C
1347 28-08-2018 16:10:00 24.2 C 46 % 11.85 C
1348 28-08-2018 16:15:00 24.2 C 46 % 11.85 C
1349 28-08-2018 16:20:00 24.3 C 47 % 12.27 C
1350 28-08-2018 16:25:00 24.8 C 47 % 12.73 C
Sensor: Nr:Datum:Temp:Feuchte:Taupunkt:
Aussen-T/F 1351 28-08-2018 16:30:00 25.3 C 44 % 12.18 C
1352 28-08-2018 16:35:00 25.7 C 43 % 12.19 C
1353 28-08-2018 16:40:00 26.1 C 42 % 12.19 C
1354 28-08-2018 16:45:00 26.2 C 42 % 12.28 C
1355 28-08-2018 16:50:00 26.3 C 43 % 12.73 C
1356 28-08-2018 16:55:00 26.4 C 41 % 12.09 C
1357 28-08-2018 17:00:00 26.6 C 41 % 12.27 C
1358 28-08-2018 17:05:00 26.7 C 41 % 12.36 C
1359 28-08-2018 17:10:00 26.8 C 40 % 12.07 C
1360 28-08-2018 17:15:00 26.8 C 40 % 12.07 C
1361 28-08-2018 17:20:00 26.3 C 41 % 12 C
1362 28-08-2018 17:25:00 26.1 C 43 % 12.55 C
1363 28-08-2018 17:30:00 26.2 C 42 % 12.28 C
1364 28-08-2018 17:35:00 26.3 C 41 % 12 C
1365 28-08-2018 17:40:00 26.6 C 41 % 12.27 C
1366 28-08-2018 17:45:00 26.5 C 41 % 12.18 C
1367 28-08-2018 17:50:00 26.3 C 41 % 12 C
1368 28-08-2018 17:55:00 25.9 C 43 % 12.37 C
1369 28-08-2018 18:00:00 25.9 C 43 % 12.37 C
1370 28-08-2018 18:05:00 26 C 41 % 11.73 C
1371 28-08-2018 18:10:00 26.1 C 42 % 12.19 C
1372 28-08-2018 18:15:00 26 C 42 % 12.1 C
1373 28-08-2018 18:20:00 25.9 C 42 % 12.01 C
1374 28-08-2018 18:25:00 25.9 C 41 % 11.64 C
1375 28-08-2018 18:30:00 25.9 C 42 % 12.01 C
Sensor: Nr:Datum:Temp:Feuchte:Taupunkt:
Aussen-T/F 1376 28-08-2018 18:35:00 26.1 C 42 % 12.19 C
1377 28-08-2018 18:40:00 26.3 C 43 % 12.73 C
1378 28-08-2018 18:45:00 26.5 C 41 % 12.18 C
1379 28-08-2018 18:50:00 26.7 C 41 % 12.36 C
1380 28-08-2018 18:55:00 26.7 C 43 % 13.09 C
1381 28-08-2018 19:00:00 26.6 C 42 % 12.64 C
1382 28-08-2018 19:05:00 26.3 C 41 % 12 C
1383 28-08-2018 19:10:00 26.3 C 44 % 13.08 C
1384 28-08-2018 19:15:00 26.1 C 43 % 12.55 C
1385 28-08-2018 19:20:00 25.9 C 45 % 13.06 C
1386 28-08-2018 19:25:00 25.6 C 47 % 13.45 C
1387 28-08-2018 19:30:00 25.1 C 48 % 13.32 C
1388 28-08-2018 19:35:00 24.7 C 49 % 13.27 C
1389 28-08-2018 19:40:00 24.3 C 50 % 13.22 C
1390 28-08-2018 19:45:00 23.8 C 51 % 13.06 C
1391 28-08-2018 19:50:00 23.4 C 52 % 12.99 C
1392 28-08-2018 19:55:00 22.9 C 53 % 12.82 C
1393 28-08-2018 20:00:00 22.5 C 55 % 13.01 C
1394 28-08-2018 20:05:00 22 C 56 % 12.82 C
1395 28-08-2018 20:10:00 21.5 C 57 % 12.63 C
1396 28-08-2018 20:15:00 21.1 C 58 % 12.52 C
1397 28-08-2018 20:20:00 20.6 C 59 % 12.31 C
1398 28-08-2018 20:25:00 20.1 C 60 % 12.1 C
1399 28-08-2018 20:30:00 19.7 C 61 % 11.97 C
1400 28-08-2018 20:35:00 19.3 C 61 % 11.6 C
Sensor: Nr:Datum:Temp:Feuchte:Taupunkt:
Aussen-T/F 1401 28-08-2018 20:40:00 19 C 62 % 11.56 C
1402 28-08-2018 20:45:00 18.8 C 62 % 11.37 C
1403 28-08-2018 20:50:00 18.6 C 63 % 11.42 C
1404 28-08-2018 20:55:00 18.5 C 63 % 11.33 C
1405 28-08-2018 21:00:00 18.3 C 63 % 11.14 C
1406 28-08-2018 21:05:00 18.3 C 64 % 11.38 C
1407 28-08-2018 21:10:00 18.2 C 64 % 11.28 C
1408 28-08-2018 21:15:00 18.1 C 65 % 11.42 C
1409 28-08-2018 21:20:00 18 C 64 % 11.09 C
1410 28-08-2018 21:25:00 17.9 C 64 % 11 C
1411 28-08-2018 21:30:00 17.8 C 64 % 10.9 C
1412 28-08-2018 21:35:00 17.8 C 65 % 11.14 C
1413 28-08-2018 21:40:00 17.7 C 65 % 11.04 C
1414 28-08-2018 21:45:00 17.6 C 65 % 10.95 C
1415 28-08-2018 21:50:00 17.5 C 65 % 10.85 C
1416 28-08-2018 21:55:00 17.3 C 66 % 10.89 C
1417 28-08-2018 22:00:00 17.2 C 66 % 10.8 C
1418 28-08-2018 22:05:00 17.1 C 66 % 10.7 C
1419 28-08-2018 22:10:00 16.9 C 67 % 10.74 C
1420 28-08-2018 22:15:00 16.8 C 67 % 10.64 C
1421 28-08-2018 22:20:00 16.7 C 67 % 10.55 C
1422 28-08-2018 22:25:00 16.6 C 67 % 10.45 C
1423 28-08-2018 22:30:00 16.6 C 68 % 10.67 C
1424 28-08-2018 22:35:00 16.4 C 68 % 10.48 C
1425 28-08-2018 22:40:00 16.3 C 68 % 10.39 C
Sensor: Nr:Datum:Temp:Feuchte:Taupunkt:
Aussen-T/F 1426 28-08-2018 22:45:00 16.3 C 68 % 10.39 C
1427 28-08-2018 22:50:00 16.3 C 68 % 10.39 C
1428 28-08-2018 22:55:00 16.2 C 68 % 10.29 C
1429 28-08-2018 23:00:00 16.2 C 69 % 10.51 C
1430 28-08-2018 23:05:00 16.1 C 69 % 10.42 C
1431 28-08-2018 23:10:00 15.9 C 69 % 10.23 C
1432 28-08-2018 23:15:00 15.8 C 70 % 10.34 C
1433 28-08-2018 23:20:00 15.8 C 70 % 10.34 C
1434 28-08-2018 23:25:00 15.7 C 71 % 10.46 C
1435 28-08-2018 23:30:00 15.6 C 71 % 10.37 C
1436 28-08-2018 23:35:00 15.4 C 71 % 10.17 C
1437 28-08-2018 23:40:00 15.4 C 72 % 10.38 C
1438 28-08-2018 23:45:00 15.3 C 72 % 10.29 C
1439 28-08-2018 23:50:00 15.2 C 72 % 10.19 C
1440 28-08-2018 23:55:00 15.1 C 73 % 10.3 C

Legende:
   Min
   Max


Maximal/Minimal-Werte vom 24.08.2018 - 28.08.2018

Sensor Min Max Avg
Temp
(Aussen-T/F)
6.8 °C
26-08-2018  06:40:00
26.8 °C
28-08-2018  17:10:00
16.72 °C
Feuchte
(Aussen-T/F)
36 %
26-08-2018  16:35:00
93 %
26-08-2018  07:20:00
68.2 %
Taupunkt
(Aussen-T/F)
5.59 C
26-08-2018  06:40:00
16.8 C
24-08-2018  01:25:00
10.38 C

Die Daten stammen von einer Davis Vantage Pro 2 Wetter-Station und werden unter Linux mit der Software wview2wettercgi und aufbereitet. Alle Angaben erfolgen ohne Gewähr für ihre Vollständigkeit oder Richtigkeit.
Kontakt: Rainer Krienke krienke@uni-koblenz.de . Meine Webseiten an der Uni Koblenz oder privat.
Version: $Revision: 0.78 $